Time,TemperatureF,DewpointF,PressureIn,WindDirection,WindDirectionDegrees,WindSpeedMPH,WindSpeedGustMPH,Humidity,HourlyPrecipIn,Conditions,Clouds,dailyrainin,SoftwareType,DateUTC
2013-05-20 00:00:00,59.2,57.3,30.17,WSW,248,1.3,1.8,93,0.00,,,0.00,WUHU216HW,2013-05-20 04:00:00,
2013-05-20 00:01:00,59.2,57.3,30.17,SW,225,0.7,1.8,93,0.00,,,0.00,WUHU216HW,2013-05-20 04:01:00,
2013-05-20 00:06:00,59.2,57.3,30.18,SW,225,0.4,2.2,93,0.00,,,0.00,WUHU216HW,2013-05-20 04:06:00,
2013-05-20 00:11:00,59.2,57.3,30.18,WNW,293,1.6,2.2,93,0.00,,,0.00,WUHU216HW,2013-05-20 04:11:00,
2013-05-20 00:16:00,59.2,57.3,30.17,SW,225,0.9,2.5,93,0.00,,,0.00,WUHU216HW,2013-05-20 04:16:00,
2013-05-20 00:21:00,59.2,57.3,30.17,SW,225,0.0,2.5,93,0.00,,,0.00,WUHU216HW,2013-05-20 04:21:00,
2013-05-20 00:22:00,59.2,57.3,30.17,SW,225,0.0,2.5,93,0.00,,,0.00,WUHU216HW,2013-05-20 04:22:00,
2013-05-20 00:26:00,59.4,57.4,30.17,SW,225,0.0,2.2,93,0.00,,,0.00,WUHU216HW,2013-05-20 04:26:00,
2013-05-20 00:27:00,59.4,57.4,30.17,SW,225,0.4,2.2,93,0.00,,,0.00,WUHU216HW,2013-05-20 04:27:00,
2013-05-20 00:31:00,59.4,57.4,30.17,South,180,3.1,3.1,93,0.00,,,0.00,WUHU216HW,2013-05-20 04:31:00,
2013-05-20 00:32:00,59.4,57.4,30.17,South,180,3.1,3.1,93,0.00,,,0.00,WUHU216HW,2013-05-20 04:32:00,
2013-05-20 00:33:00,59.4,57.4,30.17,South,180,3.1,3.1,93,0.00,,,0.00,WUHU216HW,2013-05-20 04:33:00,
2013-05-20 00:36:00,59.4,57.4,30.17,WSW,248,0.4,3.1,93,0.00,,,0.00,WUHU216HW,2013-05-20 04:36:00,
2013-05-20 00:37:00,59.6,57.6,30.17,SW,225,1.3,3.1,93,0.00,,,0.00,WUHU216HW,2013-05-20 04:37:00,
2013-05-20 00:38:00,59.6,57.6,30.17,WSW,248,3.4,3.4,93,0.00,,,0.00,WUHU216HW,2013-05-20 04:38:00,
2013-05-20 00:42:00,59.6,57.6,30.17,South,180,1.3,3.4,93,0.00,,,0.00,WUHU216HW,2013-05-20 04:42:00,
2013-05-20 00:43:00,59.6,57.6,30.17,SSW,203,1.1,3.4,93,0.00,,,0.00,WUHU216HW,2013-05-20 04:43:00,
2013-05-20 00:47:00,59.4,57.4,30.17,SW,225,0.7,3.4,93,0.00,,,0.00,WUHU216HW,2013-05-20 04:47:00,
2013-05-20 00:48:00,59.6,57.6,30.17,South,180,0.9,3.4,93,0.00,,,0.00,WUHU216HW,2013-05-20 04:48:00,
2013-05-20 00:49:00,59.6,57.6,30.17,SW,225,0.4,2.5,93,0.00,,,0.00,WUHU216HW,2013-05-20 04:49:00,
2013-05-20 00:52:00,59.6,57.6,30.17,SW,225,0.4,2.5,93,0.00,,,0.00,WUHU216HW,2013-05-20 04:52:00,
2013-05-20 00:53:00,59.6,57.6,30.17,SW,225,0.4,2.5,93,0.00,,,0.00,WUHU216HW,2013-05-20 04:53:00,
2013-05-20 00:54:00,59.6,57.6,30.16,SW,225,1.8,2.5,93,0.00,,,0.00,WUHU216HW,2013-05-20 04:54:00,
2013-05-20 00:57:00,59.8,57.8,30.16,SSW,203,0.4,2.2,93,0.00,,,0.00,WUHU216HW,2013-05-20 04:57:00,
2013-05-20 00:58:00,59.8,57.8,30.16,SSW,203,1.1,2.2,93,0.00,,,0.00,WUHU216HW,2013-05-20 04:58:00,
2013-05-20 00:59:00,59.8,57.8,30.16,SW,225,0.4,2.2,93,0.00,,,0.00,WUHU216HW,2013-05-20 04:59:00,
2013-05-20 01:02:00,59.8,57.8,30.16,South,180,0.4,2.2,93,0.00,,,0.00,WUHU216HW,2013-05-20 05:02:00,
2013-05-20 01:03:00,59.8,57.8,30.16,South,180,0.4,2.2,93,0.00,,,0.00,WUHU216HW,2013-05-20 05:03:00,
2013-05-20 01:04:00,59.8,57.8,30.16,South,180,0.4,2.2,93,0.00,,,0.00,WUHU216HW,2013-05-20 05:04:00,
2013-05-20 01:07:00,59.8,57.8,30.16,SW,225,0.4,1.1,93,0.00,,,0.00,WUHU216HW,2013-05-20 05:07:00,
2013-05-20 01:08:00,59.8,57.8,30.16,SSW,203,1.1,1.8,93,0.00,,,0.00,WUHU216HW,2013-05-20 05:08:00,
2013-05-20 01:09:00,59.8,57.8,30.16,South,180,0.0,1.8,93,0.00,,,0.00,WUHU216HW,2013-05-20 05:09:00,
2013-05-20 01:12:00,59.9,58.0,30.16,South,180,0.4,1.8,93,0.00,,,0.00,WUHU216HW,2013-05-20 05:12:00,
2013-05-20 01:13:00,59.9,58.0,30.15,South,180,0.4,1.8,93,0.00,,,0.00,WUHU216HW,2013-05-20 05:13:00,
2013-05-20 01:14:00,59.9,58.0,30.15,South,180,0.4,1.8,93,0.00,,,0.00,WUHU216HW,2013-05-20 05:14:00,
2013-05-20 01:17:00,59.8,57.8,30.15,WSW,248,0.4,1.8,93,0.00,,,0.00,WUHU216HW,2013-05-20 05:17:00,
2013-05-20 01:18:00,59.8,57.8,30.15,WSW,248,0.4,1.8,93,0.00,,,0.00,WUHU216HW,2013-05-20 05:18:00,
2013-05-20 01:19:00,59.8,57.8,30.15,WSW,248,0.4,0.7,93,0.00,,,0.00,WUHU216HW,2013-05-20 05:19:00,
2013-05-20 01:20:00,59.6,57.6,30.15,SSW,203,0.0,0.7,93,0.00,,,0.00,WUHU216HW,2013-05-20 05:20:00,
2013-05-20 01:22:00,59.6,57.6,30.15,South,180,1.6,1.6,93,0.00,,,0.00,WUHU216HW,2013-05-20 05:22:00,
2013-05-20 01:23:00,59.6,57.6,30.15,South,180,1.6,1.6,93,0.00,,,0.00,WUHU216HW,2013-05-20 05:23:00,
2013-05-20 01:24:00,59.4,57.4,30.15,SW,225,0.2,2.0,93,0.00,,,0.00,WUHU216HW,2013-05-20 05:24:00,
2013-05-20 01:25:00,59.4,57.4,30.15,SSW,203,0.4,2.0,93,0.00,,,0.00,WUHU216HW,2013-05-20 05:25:00,
2013-05-20 01:27:00,59.4,57.4,30.15,South,180,0.4,2.0,93,0.00,,,0.00,WUHU216HW,2013-05-20 05:27:00,
2013-05-20 01:28:00,59.4,57.4,30.15,SW,225,0.4,2.0,93,0.00,,,0.00,WUHU216HW,2013-05-20 05:28:00,
2013-05-20 01:29:00,59.4,57.4,30.15,WSW,248,0.7,2.0,93,0.00,,,0.00,WUHU216HW,2013-05-20 05:29:00,
2013-05-20 01:30:00,59.4,57.4,30.15,WNW,293,0.4,2.0,93,0.00,,,0.00,WUHU216HW,2013-05-20 05:30:00,
2013-05-20 01:32:00,59.2,57.3,30.15,South,180,0.0,2.0,93,0.00,,,0.00,WUHU216HW,2013-05-20 05:32:00,
2013-05-20 01:33:00,59.2,57.3,30.15,South,180,0.0,2.0,93,0.00,,,0.00,WUHU216HW,2013-05-20 05:33:00,
2013-05-20 01:34:00,59.2,57.3,30.15,South,180,0.0,2.0,93,0.00,,,0.00,WUHU216HW,2013-05-20 05:34:00,
2013-05-20 01:36:00,59.2,57.3,30.15,South,180,0.0,1.1,93,0.00,,,0.00,WUHU216HW,2013-05-20 05:36:00,
2013-05-20 01:37:00,59.2,57.3,30.15,SSW,203,0.2,1.6,93,0.00,,,0.00,WUHU216HW,2013-05-20 05:37:00,
2013-05-20 01:38:00,59.2,57.3,30.15,South,180,0.2,1.6,93,0.00,,,0.00,WUHU216HW,2013-05-20 05:38:00,
2013-05-20 01:39:00,59.2,57.3,30.15,NW,315,0.2,1.6,93,0.00,,,0.00,WUHU216HW,2013-05-20 05:39:00,
2013-05-20 01:40:00,59.2,57.3,30.15,WSW,248,0.0,1.6,93,0.00,,,0.00,WUHU216HW,2013-05-20 05:40:00,
2013-05-20 01:41:00,59.2,57.3,30.15,SW,225,0.0,1.6,93,0.00,,,0.00,WUHU216HW,2013-05-20 05:41:00,
2013-05-20 01:43:00,59.2,57.3,30.14,West,270,0.0,1.6,93,0.00,,,0.00,WUHU216HW,2013-05-20 05:43:00,
2013-05-20 01:44:00,59.2,57.3,30.15,SSW,203,0.4,1.6,93,0.00,,,0.00,WUHU216HW,2013-05-20 05:44:00,
2013-05-20 01:45:00,59.2,57.3,30.15,SSW,203,0.4,1.6,93,0.00,,,0.00,WUHU216HW,2013-05-20 05:45:00,
2013-05-20 01:47:00,59.2,57.3,30.15,SW,225,0.7,1.6,93,0.00,,,0.00,WUHU216HW,2013-05-20 05:47:00,
2013-05-20 01:48:00,59.2,57.3,30.14,SW,225,0.7,0.7,93,0.00,,,0.00,WUHU216HW,2013-05-20 05:48:00,
2013-05-20 01:49:00,59.2,57.3,30.14,SW,225,0.7,0.7,93,0.00,,,0.00,WUHU216HW,2013-05-20 05:49:00,
2013-05-20 01:50:00,59.2,57.3,30.14,SW,225,0.7,0.7,93,0.00,,,0.00,WUHU216HW,2013-05-20 05:50:00,
2013-05-20 01:52:00,59.2,57.3,30.14,SSE,158,0.2,0.7,93,0.00,,,0.00,WUHU216HW,2013-05-20 05:52:00,
2013-05-20 01:53:00,59.2,57.3,30.14,South,180,0.0,0.7,93,0.00,,,0.00,WUHU216HW,2013-05-20 05:53:00,
2013-05-20 01:54:00,59.2,57.3,30.14,SE,135,0.0,0.7,93,0.00,,,0.00,WUHU216HW,2013-05-20 05:54:00,
2013-05-20 01:55:00,59.2,57.3,30.14,South,180,0.0,0.7,93,0.00,,,0.00,WUHU216HW,2013-05-20 05:55:00,
2013-05-20 01:58:00,59.2,57.3,30.14,South,180,0.0,0.7,93,0.00,,,0.00,WUHU216HW,2013-05-20 05:58:00,
2013-05-20 01:59:00,59.2,57.3,30.14,South,180,0.0,0.7,93,0.00,,,0.00,WUHU216HW,2013-05-20 05:59:00,
2013-05-20 02:00:00,59.2,57.3,30.14,South,180,0.0,0.7,93,0.00,,,0.00,WUHU216HW,2013-05-20 06:00:00,
2013-05-20 02:03:00,59.0,57.1,30.14,South,180,0.0,0.4,93,0.00,,,0.00,WUHU216HW,2013-05-20 06:03:00,
2013-05-20 02:04:00,59.0,57.1,30.14,South,180,0.0,0.4,93,0.00,,,0.00,WUHU216HW,2013-05-20 06:04:00,
2013-05-20 02:05:00,59.0,57.1,30.14,South,180,0.0,0.0,93,0.00,,,0.00,WUHU216HW,2013-05-20 06:05:00,
2013-05-20 02:08:00,59.0,57.1,30.14,SSW,203,0.0,0.2,93,0.00,,,0.00,WUHU216HW,2013-05-20 06:08:00,
2013-05-20 02:09:00,59.0,57.1,30.14,SSW,203,0.2,0.2,93,0.00,,,0.00,WUHU216HW,2013-05-20 06:09:00,
2013-05-20 02:10:00,59.0,56.7,30.14,SSW,203,0.0,0.2,92,0.00,,,0.00,WUHU216HW,2013-05-20 06:10:00,
2013-05-20 02:11:00,59.0,56.7,30.14,SE,135,0.0,0.2,92,0.00,,,0.00,WUHU216HW,2013-05-20 06:11:00,
2013-05-20 02:13:00,58.9,56.5,30.14,South,180,0.0,0.2,92,0.00,,,0.00,WUHU216HW,2013-05-20 06:13:00,
2013-05-20 02:14:00,59.0,56.7,30.14,SSW,203,0.2,0.2,92,0.00,,,0.00,WUHU216HW,2013-05-20 06:14:00,
2013-05-20 02:16:00,58.9,56.5,30.14,SSW,203,0.0,0.2,92,0.00,,,0.00,WUHU216HW,2013-05-20 06:16:00,
2013-05-20 02:19:00,58.9,56.5,30.14,SSW,203,0.0,0.2,92,0.00,,,0.00,WUHU216HW,2013-05-20 06:19:00,
2013-05-20 02:21:00,58.9,56.5,30.14,SW,225,0.4,0.4,92,0.00,,,0.00,WUHU216HW,2013-05-20 06:21:00,
2013-05-20 02:24:00,58.9,56.5,30.13,South,180,0.0,0.4,92,0.00,,,0.00,WUHU216HW,2013-05-20 06:24:00,
2013-05-20 02:26:00,58.7,56.3,30.13,SSW,203,0.0,0.4,92,0.00,,,0.00,WUHU216HW,2013-05-20 06:26:00,
2013-05-20 02:29:00,58.7,56.3,30.13,SSW,203,0.7,0.7,92,0.00,,,0.00,WUHU216HW,2013-05-20 06:29:00,
2013-05-20 02:31:00,58.7,56.3,30.13,SW,225,0.0,0.7,92,0.00,,,0.00,WUHU216HW,2013-05-20 06:31:00,
2013-05-20 02:34:00,58.7,56.3,30.13,SW,225,0.0,1.1,92,0.00,,,0.00,WUHU216HW,2013-05-20 06:34:00,
2013-05-20 02:35:00,58.7,56.3,30.13,SSW,203,0.0,1.1,92,0.00,,,0.00,WUHU216HW,2013-05-20 06:35:00,
2013-05-20 02:36:00,58.7,56.3,30.13,SSE,158,0.2,1.1,92,0.00,,,0.00,WUHU216HW,2013-05-20 06:36:00,
2013-05-20 02:39:00,58.7,56.3,30.12,SW,225,0.4,1.1,92,0.00,,,0.00,WUHU216HW,2013-05-20 06:39:00,
2013-05-20 02:40:00,58.7,56.3,30.12,SW,225,0.0,1.1,92,0.00,,,0.00,WUHU216HW,2013-05-20 06:40:00,
2013-05-20 02:41:00,58.7,56.3,30.12,SSW,203,0.2,1.1,92,0.00,,,0.00,WUHU216HW,2013-05-20 06:41:00,
2013-05-20 02:44:00,58.9,56.5,30.13,WSW,248,0.9,0.9,92,0.00,,,0.00,WUHU216HW,2013-05-20 06:44:00,
2013-05-20 02:45:00,58.9,56.5,30.13,SW,225,0.2,0.9,92,0.00,,,0.00,WUHU216HW,2013-05-20 06:45:00,
2013-05-20 02:46:00,58.9,56.5,30.12,SSW,203,0.2,0.9,92,0.00,,,0.00,WUHU216HW,2013-05-20 06:46:00,
2013-05-20 02:47:00,58.9,56.5,30.12,SSW,203,0.0,0.9,92,0.00,,,0.00,WUHU216HW,2013-05-20 06:47:00,
2013-05-20 02:49:00,58.9,56.5,30.12,SSW,203,0.4,0.9,92,0.00,,,0.00,WUHU216HW,2013-05-20 06:49:00,
2013-05-20 02:50:00,58.9,56.5,30.12,SSW,203,0.4,0.9,92,0.00,,,0.00,WUHU216HW,2013-05-20 06:50:00,
2013-05-20 02:52:00,59.0,57.1,30.12,WSW,248,0.2,0.9,93,0.00,,,0.00,WUHU216HW,2013-05-20 06:52:00,
2013-05-20 02:55:00,59.0,57.1,30.12,SSW,203,0.4,1.1,93,0.00,,,0.00,WUHU216HW,2013-05-20 06:55:00,
2013-05-20 02:57:00,59.2,57.3,30.12,SW,225,0.0,1.3,93,0.00,,,0.00,WUHU216HW,2013-05-20 06:57:00,
2013-05-20 02:58:00,59.2,57.3,30.12,SW,225,0.0,1.3,93,0.00,,,0.00,WUHU216HW,2013-05-20 06:58:00,
2013-05-20 03:00:00,59.2,57.3,30.12,SSW,203,0.0,1.3,93,0.00,,,0.00,WUHU216HW,2013-05-20 07:00:00,
2013-05-20 03:02:00,59.4,57.4,30.11,South,180,0.4,1.3,93,0.00,,,0.00,WUHU216HW,2013-05-20 07:02:00,
2013-05-20 03:03:00,59.4,57.4,30.11,South,180,0.4,1.3,93,0.00,,,0.00,WUHU216HW,2013-05-20 07:03:00,
2013-05-20 03:05:00,59.4,57.4,30.11,SW,225,2.5,2.5,93,0.00,,,0.00,WUHU216HW,2013-05-20 07:05:00,
2013-05-20 03:08:00,59.4,57.4,30.11,WSW,248,0.2,2.5,93,0.00,,,0.00,WUHU216HW,2013-05-20 07:08:00,
2013-05-20 03:10:00,59.6,57.6,30.11,SSW,203,0.7,2.5,93,0.00,,,0.00,WUHU216HW,2013-05-20 07:10:00,
2013-05-20 03:13:00,59.6,57.6,30.11,West,270,0.4,2.9,93,0.03,,,0.02,WUHU216HW,2013-05-20 07:13:00,
2013-05-20 03:15:00,59.4,57.4,30.11,SSW,203,0.7,2.9,93,0.05,,,0.06,WUHU216HW,2013-05-20 07:15:00,
2013-05-20 03:16:00,59.6,57.6,30.11,SSW,203,2.0,2.9,93,0.05,,,0.06,WUHU216HW,2013-05-20 07:16:00,
2013-05-20 03:18:00,59.4,57.4,30.11,South,180,0.7,2.9,93,0.05,,,0.06,WUHU216HW,2013-05-20 07:18:00,
2013-05-20 03:21:00,59.4,57.4,30.11,WSW,248,0.2,2.9,93,0.05,,,0.06,WUHU216HW,2013-05-20 07:21:00,
2013-05-20 03:23:00,59.6,57.6,30.11,SSE,158,0.2,2.5,93,0.05,,,0.06,WUHU216HW,2013-05-20 07:23:00,
2013-05-20 03:24:00,59.6,57.6,30.11,WSW,248,0.9,2.5,93,0.05,,,0.06,WUHU216HW,2013-05-20 07:24:00,
2013-05-20 03:26:00,59.6,57.6,30.11,SW,225,0.0,2.5,93,0.05,,,0.06,WUHU216HW,2013-05-20 07:26:00,
2013-05-20 03:28:00,59.6,57.6,30.11,SSE,158,0.4,2.5,93,0.05,,,0.06,WUHU216HW,2013-05-20 07:28:00,
2013-05-20 03:29:00,59.6,57.6,30.11,West,270,0.2,2.0,93,0.05,,,0.06,WUHU216HW,2013-05-20 07:29:00,
2013-05-20 03:31:00,59.6,57.6,30.11,SSE,158,0.0,1.8,93,0.05,,,0.06,WUHU216HW,2013-05-20 07:31:00,
2013-05-20 03:33:00,59.6,57.6,30.11,WSW,248,0.7,1.8,93,0.05,,,0.06,WUHU216HW,2013-05-20 07:33:00,
2013-05-20 03:34:00,59.6,57.6,30.11,WSW,248,0.7,1.8,93,0.05,,,0.06,WUHU216HW,2013-05-20 07:34:00,
2013-05-20 03:36:00,59.6,57.6,30.11,SSE,158,0.4,1.8,93,0.05,,,0.06,WUHU216HW,2013-05-20 07:36:00,
2013-05-20 03:39:00,59.6,57.6,30.11,SW,225,0.9,1.8,93,0.05,,,0.06,WUHU216HW,2013-05-20 07:39:00,
2013-05-20 03:40:00,59.6,57.6,30.11,WSW,248,0.2,1.8,93,0.05,,,0.06,WUHU216HW,2013-05-20 07:40:00,
2013-05-20 03:41:00,59.6,57.6,30.11,WSW,248,1.1,1.8,93,0.05,,,0.06,WUHU216HW,2013-05-20 07:41:00,
2013-05-20 03:44:00,59.4,57.4,30.11,SW,225,0.2,2.2,93,0.05,,,0.06,WUHU216HW,2013-05-20 07:44:00,
2013-05-20 03:45:00,59.4,57.4,30.11,WSW,248,0.2,2.2,93,0.05,,,0.06,WUHU216HW,2013-05-20 07:45:00,
2013-05-20 03:46:00,59.4,57.4,30.11,WSW,248,0.2,2.2,93,0.05,,,0.06,WUHU216HW,2013-05-20 07:46:00,
2013-05-20 03:49:00,59.4,57.4,30.11,SW,225,0.4,2.2,93,0.05,,,0.06,WUHU216HW,2013-05-20 07:49:00,
2013-05-20 03:50:00,59.4,57.4,30.11,SW,225,2.5,2.5,93,0.05,,,0.06,WUHU216HW,2013-05-20 07:50:00,
2013-05-20 03:51:00,59.4,57.4,30.11,SSW,203,0.0,2.5,93,0.05,,,0.06,WUHU216HW,2013-05-20 07:51:00,
2013-05-20 03:52:00,59.4,57.4,30.11,SSW,203,0.4,2.5,93,0.05,,,0.06,WUHU216HW,2013-05-20 07:52:00,
2013-05-20 03:54:00,59.4,57.4,30.11,SW,225,0.4,2.5,93,0.05,,,0.06,WUHU216HW,2013-05-20 07:54:00,
2013-05-20 03:55:00,59.4,57.4,30.11,SW,225,1.1,2.5,93,0.05,,,0.06,WUHU216HW,2013-05-20 07:55:00,
2013-05-20 03:57:00,59.4,57.4,30.11,SSW,203,0.2,2.5,93,0.05,,,0.06,WUHU216HW,2013-05-20 07:57:00,
2013-05-20 03:59:00,59.4,57.4,30.11,WSW,248,0.4,2.5,93,0.05,,,0.06,WUHU216HW,2013-05-20 07:59:00,
2013-05-20 04:00:00,59.4,57.4,30.11,SSE,158,0.2,2.5,93,0.05,,,0.06,WUHU216HW,2013-05-20 08:00:00,
2013-05-20 04:02:00,59.4,57.4,30.11,WSW,248,0.4,1.8,93,0.05,,,0.06,WUHU216HW,2013-05-20 08:02:00,
2013-05-20 04:05:00,59.4,57.4,30.11,SSW,203,0.4,1.1,93,0.05,,,0.06,WUHU216HW,2013-05-20 08:05:00,
2013-05-20 04:07:00,59.2,57.3,30.11,SW,225,1.3,1.3,93,0.05,,,0.06,WUHU216HW,2013-05-20 08:07:00,
2013-05-20 04:10:00,59.2,57.3,30.10,WSW,248,0.4,1.3,93,0.05,,,0.06,WUHU216HW,2013-05-20 08:10:00,
2013-05-20 04:11:00,59.2,57.3,30.11,SW,225,1.1,1.3,93,0.05,,,0.06,WUHU216HW,2013-05-20 08:11:00,
2013-05-20 04:12:00,59.2,57.3,30.11,South,180,0.4,1.3,93,0.00,,,0.06,WUHU216HW,2013-05-20 08:12:00,
2013-05-20 04:15:00,59.0,57.1,30.11,South,180,0.4,1.3,93,0.00,,,0.06,WUHU216HW,2013-05-20 08:15:00,
2013-05-20 04:17:00,59.0,57.1,30.11,South,180,0.0,1.8,93,0.00,,,0.06,WUHU216HW,2013-05-20 08:17:00,
2013-05-20 04:20:00,59.0,57.1,30.11,SSW,203,0.0,1.8,93,0.00,,,0.06,WUHU216HW,2013-05-20 08:20:00,
2013-05-20 04:22:00,59.0,57.1,30.10,South,180,0.4,1.8,93,0.00,,,0.06,WUHU216HW,2013-05-20 08:22:00,
2013-05-20 04:23:00,59.0,57.1,30.10,South,180,0.4,1.8,93,0.00,,,0.06,WUHU216HW,2013-05-20 08:23:00,
2013-05-20 04:26:00,59.0,57.1,30.10,SSW,203,0.2,1.8,93,0.00,,,0.06,WUHU216HW,2013-05-20 08:26:00,
2013-05-20 04:27:00,59.0,57.1,30.10,SSW,203,0.2,0.4,93,0.00,,,0.06,WUHU216HW,2013-05-20 08:27:00,
2013-05-20 04:28:00,59.0,56.7,30.10,SW,225,0.4,0.4,92,0.00,,,0.06,WUHU216HW,2013-05-20 08:28:00,
2013-05-20 04:31:00,58.9,56.5,30.10,South,180,0.0,0.4,92,0.00,,,0.06,WUHU216HW,2013-05-20 08:31:00,
2013-05-20 04:32:00,58.9,56.5,30.10,South,180,0.0,0.4,92,0.00,,,0.06,WUHU216HW,2013-05-20 08:32:00,
2013-05-20 04:33:00,58.9,56.5,30.10,South,180,0.2,0.4,92,0.00,,,0.06,WUHU216HW,2013-05-20 08:33:00,
2013-05-20 04:36:00,58.7,56.3,30.10,South,180,0.2,0.7,92,0.00,,,0.06,WUHU216HW,2013-05-20 08:36:00,
2013-05-20 04:37:00,58.7,56.3,30.10,SSW,203,0.4,0.7,92,0.00,,,0.06,WUHU216HW,2013-05-20 08:37:00,
2013-05-20 04:38:00,58.7,56.3,30.10,SSW,203,0.4,0.7,92,0.00,,,0.06,WUHU216HW,2013-05-20 08:38:00,
2013-05-20 04:41:00,58.7,56.3,30.10,SSE,158,0.4,0.7,92,0.00,,,0.06,WUHU216HW,2013-05-20 08:41:00,
2013-05-20 04:42:00,58.7,56.3,30.10,SE,135,0.0,1.1,92,0.00,,,0.06,WUHU216HW,2013-05-20 08:42:00,
2013-05-20 04:43:00,58.7,56.3,30.10,WSW,248,0.2,1.1,92,0.00,,,0.06,WUHU216HW,2013-05-20 08:43:00,
2013-05-20 04:46:00,58.7,56.3,30.10,SW,225,0.4,1.1,92,0.00,,,0.06,WUHU216HW,2013-05-20 08:46:00,
2013-05-20 04:47:00,58.7,56.3,30.10,SW,225,0.4,1.1,92,0.00,,,0.06,WUHU216HW,2013-05-20 08:47:00,
2013-05-20 04:48:00,58.7,56.3,30.10,SW,225,0.4,1.1,92,0.00,,,0.06,WUHU216HW,2013-05-20 08:48:00,
2013-05-20 04:51:00,58.7,56.7,30.10,South,180,0.0,1.3,93,0.00,,,0.06,WUHU216HW,2013-05-20 08:51:00,
2013-05-20 04:52:00,58.7,56.7,30.10,SSW,203,0.2,1.3,93,0.00,,,0.06,WUHU216HW,2013-05-20 08:52:00,
2013-05-20 04:53:00,58.7,56.7,30.10,SW,225,0.4,1.3,93,0.00,,,0.06,WUHU216HW,2013-05-20 08:53:00,
2013-05-20 04:54:00,58.7,56.3,30.10,SSE,158,0.4,1.3,92,0.00,,,0.06,WUHU216HW,2013-05-20 08:54:00,
2013-05-20 04:56:00,58.7,56.7,30.10,SW,225,1.1,1.3,93,0.00,,,0.06,WUHU216HW,2013-05-20 08:56:00,
2013-05-20 04:57:00,58.7,56.7,30.10,SW,225,1.1,1.3,93,0.00,,,0.06,WUHU216HW,2013-05-20 08:57:00,
2013-05-20 04:58:00,58.7,56.7,30.10,SW,225,1.1,1.3,93,0.00,,,0.06,WUHU216HW,2013-05-20 08:58:00,
2013-05-20 04:59:00,58.7,56.7,30.10,SW,225,1.1,1.3,93,0.00,,,0.06,WUHU216HW,2013-05-20 08:59:00,
2013-05-20 05:01:00,58.9,56.9,30.10,SSW,203,1.3,1.3,93,0.00,,,0.06,WUHU216HW,2013-05-20 09:01:00,
2013-05-20 05:02:00,58.9,56.9,30.11,WSW,248,0.0,1.3,93,0.00,,,0.06,WUHU216HW,2013-05-20 09:02:00,
2013-05-20 05:04:00,58.7,56.7,30.11,South,180,1.1,1.3,93,0.00,,,0.06,WUHU216HW,2013-05-20 09:04:00,
2013-05-20 05:06:00,58.7,56.7,30.10,SSE,158,0.4,1.3,93,0.00,,,0.06,WUHU216HW,2013-05-20 09:06:00,
2013-05-20 05:07:00,58.9,56.9,30.10,South,180,0.4,1.8,93,0.00,,,0.06,WUHU216HW,2013-05-20 09:07:00,
2013-05-20 05:09:00,58.9,56.9,30.10,SW,225,0.4,1.8,93,0.00,,,0.06,WUHU216HW,2013-05-20 09:09:00,
2013-05-20 05:10:00,58.9,56.9,30.10,SW,225,0.2,1.8,93,0.00,,,0.06,WUHU216HW,2013-05-20 09:10:00,
2013-05-20 05:12:00,58.9,56.9,30.10,SSE,158,0.9,1.8,93,0.00,,,0.06,WUHU216HW,2013-05-20 09:12:00,
2013-05-20 05:13:00,58.9,56.9,30.10,SSE,158,0.9,1.8,93,0.00,,,0.06,WUHU216HW,2013-05-20 09:13:00,
2013-05-20 05:14:00,58.9,56.9,30.10,SSE,158,0.9,1.8,93,0.00,,,0.06,WUHU216HW,2013-05-20 09:14:00,
2013-05-20 05:15:00,58.9,56.9,30.10,SSE,158,0.9,1.8,93,0.00,,,0.06,WUHU216HW,2013-05-20 09:15:00,
2013-05-20 05:17:00,58.9,56.9,30.10,SW,225,0.2,1.8,93,0.00,,,0.06,WUHU216HW,2013-05-20 09:17:00,
2013-05-20 05:18:00,58.9,56.9,30.10,SW,225,0.2,1.3,93,0.00,,,0.06,WUHU216HW,2013-05-20 09:18:00,
2013-05-20 05:19:00,58.9,56.9,30.11,SW,225,0.2,1.1,93,0.00,,,0.06,WUHU216HW,2013-05-20 09:19:00,
2013-05-20 05:20:00,58.9,56.9,30.11,SW,225,0.2,1.1,93,0.00,,,0.06,WUHU216HW,2013-05-20 09:20:00,
2013-05-20 05:22:00,58.9,56.9,30.10,SSE,158,0.7,0.9,93,0.00,,,0.06,WUHU216HW,2013-05-20 09:22:00,
2013-05-20 05:23:00,58.9,56.9,30.10,SW,225,1.8,1.8,93,0.00,,,0.06,WUHU216HW,2013-05-20 09:23:00,
2013-05-20 05:25:00,58.7,56.7,30.10,SSW,203,0.9,2.5,93,0.00,,,0.06,WUHU216HW,2013-05-20 09:25:00,
2013-05-20 05:27:00,58.7,56.7,30.10,SSW,203,0.0,2.5,93,0.00,,,0.06,WUHU216HW,2013-05-20 09:27:00,
2013-05-20 05:28:00,58.7,56.7,30.10,West,270,1.6,2.5,93,0.00,,,0.06,WUHU216HW,2013-05-20 09:28:00,
2013-05-20 05:30:00,58.7,56.7,30.10,SW,225,0.4,2.5,93,0.00,,,0.06,WUHU216HW,2013-05-20 09:30:00,
2013-05-20 05:31:00,58.7,56.7,30.10,SW,225,0.0,2.5,93,0.00,,,0.06,WUHU216HW,2013-05-20 09:31:00,
2013-05-20 05:32:00,58.7,56.7,30.10,WSW,248,0.4,2.5,93,0.00,,,0.06,WUHU216HW,2013-05-20 09:32:00,
2013-05-20 05:33:00,58.7,56.7,30.10,SSE,158,0.2,2.5,93,0.00,,,0.06,WUHU216HW,2013-05-20 09:33:00,
2013-05-20 05:35:00,58.7,56.7,30.10,SSW,203,0.0,1.6,93,0.00,,,0.06,WUHU216HW,2013-05-20 09:35:00,
2013-05-20 05:36:00,58.7,56.7,30.10,SSW,203,0.0,1.6,93,0.00,,,0.06,WUHU216HW,2013-05-20 09:36:00,
2013-05-20 05:37:00,58.7,56.7,30.10,SSW,203,0.0,1.6,93,0.00,,,0.06,WUHU216HW,2013-05-20 09:37:00,
2013-05-20 05:38:00,58.7,56.7,30.10,SSE,158,0.4,1.6,93,0.00,,,0.06,WUHU216HW,2013-05-20 09:38:00,
2013-05-20 05:40:00,58.7,56.7,30.10,SW,225,0.2,1.1,93,0.00,,,0.06,WUHU216HW,2013-05-20 09:40:00,
2013-05-20 05:41:00,58.7,56.7,30.10,SSE,158,1.1,1.1,93,0.00,,,0.06,WUHU216HW,2013-05-20 09:41:00,
2013-05-20 05:43:00,58.7,56.7,30.10,SW,225,0.0,1.1,93,0.00,,,0.06,WUHU216HW,2013-05-20 09:43:00,
2013-05-20 05:45:00,58.7,56.7,30.10,WSW,248,0.7,1.1,93,0.00,,,0.06,WUHU216HW,2013-05-20 09:45:00,
2013-05-20 05:46:00,58.7,56.7,30.10,WSW,248,0.7,1.1,93,0.00,,,0.06,WUHU216HW,2013-05-20 09:46:00,
2013-05-20 05:48:00,58.7,56.7,30.10,SW,225,0.7,1.1,93,0.00,,,0.06,WUHU216HW,2013-05-20 09:48:00,
2013-05-20 05:49:00,58.7,56.7,30.10,SSW,203,1.8,1.8,93,0.00,,,0.06,WUHU216HW,2013-05-20 09:49:00,
2013-05-20 05:50:00,58.7,56.7,30.11,SSW,203,1.8,1.8,93,0.00,,,0.06,WUHU216HW,2013-05-20 09:50:00,
2013-05-20 05:51:00,58.7,56.7,30.11,SSW,203,1.8,1.8,93,0.00,,,0.06,WUHU216HW,2013-05-20 09:51:00,
2013-05-20 05:53:00,58.7,56.7,30.10,SSW,203,0.0,1.8,93,0.00,,,0.06,WUHU216HW,2013-05-20 09:53:00,
2013-05-20 05:54:00,58.7,56.7,30.10,SSW,203,0.9,1.8,93,0.00,,,0.06,WUHU216HW,2013-05-20 09:54:00,
2013-05-20 05:55:00,58.7,56.7,30.10,SE,135,0.4,1.8,93,0.00,,,0.06,WUHU216HW,2013-05-20 09:55:00,
2013-05-20 05:56:00,58.7,56.7,30.10,SSW,203,0.4,2.2,93,0.00,,,0.06,WUHU216HW,2013-05-20 09:56:00,
2013-05-20 05:57:00,58.7,56.7,30.10,SSW,203,0.4,2.2,93,0.00,,,0.06,WUHU216HW,2013-05-20 09:57:00,
2013-05-20 05:58:00,58.5,56.5,30.11,SW,225,0.4,2.2,93,0.00,,,0.06,WUHU216HW,2013-05-20 09:58:00,
2013-05-20 05:59:00,58.5,56.5,30.10,SW,225,0.2,2.2,93,0.00,,,0.06,WUHU216HW,2013-05-20 09:59:00,
2013-05-20 06:00:00,58.5,56.5,30.10,South,180,0.9,2.2,93,0.00,,,0.06,WUHU216HW,2013-05-20 10:00:00,
2013-05-20 06:02:00,58.5,56.5,30.11,NW,315,1.8,2.2,93,0.00,,,0.06,WUHU216HW,2013-05-20 10:02:00,
2013-05-20 06:03:00,58.5,56.5,30.11,SSW,203,0.4,2.2,93,0.00,,,0.06,WUHU216HW,2013-05-20 10:03:00,
2013-05-20 06:05:00,58.5,56.5,30.11,SSW,203,1.1,2.2,93,0.00,,,0.06,WUHU216HW,2013-05-20 10:05:00,
2013-05-20 06:07:00,58.7,56.7,30.11,WSW,248,0.4,2.2,93,0.00,,,0.06,WUHU216HW,2013-05-20 10:07:00,
2013-05-20 06:08:00,58.7,56.7,30.11,South,180,1.8,2.2,93,0.00,,,0.06,WUHU216HW,2013-05-20 10:08:00,
2013-05-20 06:10:00,58.7,56.7,30.11,SW,225,0.7,2.2,93,0.00,,,0.06,WUHU216HW,2013-05-20 10:10:00,
2013-05-20 06:11:00,58.7,56.7,30.11,SW,225,0.0,2.2,93,0.00,,,0.06,WUHU216HW,2013-05-20 10:11:00,
2013-05-20 06:12:00,58.7,56.7,30.11,WSW,248,0.4,2.2,93,0.00,,,0.06,WUHU216HW,2013-05-20 10:12:00,
2013-05-20 06:13:00,58.7,56.7,30.11,SSW,203,1.8,2.2,93,0.00,,,0.06,WUHU216HW,2013-05-20 10:13:00,
2013-05-20 06:15:00,58.7,56.7,30.11,WSW,248,0.2,2.2,93,0.00,,,0.06,WUHU216HW,2013-05-20 10:15:00,
2013-05-20 06:16:00,58.7,56.7,30.11,WSW,248,0.2,1.8,93,0.00,,,0.06,WUHU216HW,2013-05-20 10:16:00,
2013-05-20 06:17:00,58.7,56.7,30.11,SW,225,0.4,1.8,93,0.00,,,0.06,WUHU216HW,2013-05-20 10:17:00,
2013-05-20 06:18:00,58.7,56.7,30.11,SSE,158,0.0,1.8,93,0.00,,,0.06,WUHU216HW,2013-05-20 10:18:00,
2013-05-20 06:20:00,58.7,56.7,30.10,WSW,248,0.4,1.8,93,0.00,,,0.06,WUHU216HW,2013-05-20 10:20:00,
2013-05-20 06:21:00,58.7,56.7,30.11,NW,315,1.1,1.8,93,0.00,,,0.06,WUHU216HW,2013-05-20 10:21:00,
2013-05-20 06:22:00,58.7,56.7,30.11,SW,225,0.4,1.8,93,0.00,,,0.06,WUHU216HW,2013-05-20 10:22:00,
2013-05-20 06:23:00,58.7,56.7,30.11,SW,225,1.1,1.8,93,0.00,,,0.06,WUHU216HW,2013-05-20 10:23:00,
2013-05-20 06:24:00,58.7,56.7,30.11,SW,225,0.4,1.8,93,0.00,,,0.06,WUHU216HW,2013-05-20 10:24:00,
2013-05-20 06:26:00,58.7,56.7,30.11,West,270,0.4,1.1,93,0.00,,,0.06,WUHU216HW,2013-05-20 10:26:00,
2013-05-20 06:27:00,58.7,56.7,30.11,SW,225,0.4,1.8,93,0.00,,,0.06,WUHU216HW,2013-05-20 10:27:00,
2013-05-20 06:28:00,58.7,56.7,30.10,WSW,248,0.7,1.8,93,0.00,,,0.06,WUHU216HW,2013-05-20 10:28:00,
2013-05-20 06:29:00,58.7,56.7,30.10,WSW,248,0.4,1.8,93,0.00,,,0.06,WUHU216HW,2013-05-20 10:29:00,
2013-05-20 06:31:00,58.7,56.7,30.10,SSW,203,0.7,1.8,93,0.00,,,0.06,WUHU216HW,2013-05-20 10:31:00,
2013-05-20 06:32:00,58.7,56.7,30.10,SSW,203,0.7,1.8,93,0.00,,,0.06,WUHU216HW,2013-05-20 10:32:00,
2013-05-20 06:33:00,58.7,56.7,30.10,SW,225,0.0,1.8,93,0.00,,,0.06,WUHU216HW,2013-05-20 10:33:00,
2013-05-20 06:34:00,58.7,56.7,30.10,SW,225,0.4,1.8,93,0.00,,,0.06,WUHU216HW,2013-05-20 10:34:00,
2013-05-20 06:36:00,58.7,56.7,30.10,West,270,0.2,1.8,93,0.00,,,0.06,WUHU216HW,2013-05-20 10:36:00,
2013-05-20 06:37:00,58.7,56.7,30.10,SW,225,0.0,1.6,93,0.00,,,0.06,WUHU216HW,2013-05-20 10:37:00,
2013-05-20 06:38:00,58.7,56.7,30.10,SW,225,0.7,1.6,93,0.00,,,0.06,WUHU216HW,2013-05-20 10:38:00,
2013-05-20 06:39:00,58.7,56.7,30.10,NNW,338,0.4,1.6,93,0.00,,,0.06,WUHU216HW,2013-05-20 10:39:00,
2013-05-20 06:41:00,58.7,56.7,30.10,SSW,203,0.4,1.6,93,0.00,,,0.06,WUHU216HW,2013-05-20 10:41:00,
2013-05-20 06:42:00,58.7,56.7,30.10,SW,225,0.2,1.6,93,0.00,,,0.06,WUHU216HW,2013-05-20 10:42:00,
2013-05-20 06:43:00,58.7,56.7,30.10,SSW,203,0.4,1.6,93,0.00,,,0.06,WUHU216HW,2013-05-20 10:43:00,
2013-05-20 06:44:00,58.7,56.7,30.10,SSW,203,0.4,1.6,93,0.00,,,0.06,WUHU216HW,2013-05-20 10:44:00,
2013-05-20 06:46:00,58.7,56.7,30.10,NNW,338,0.0,0.7,93,0.00,,,0.06,WUHU216HW,2013-05-20 10:46:00,
2013-05-20 06:47:00,58.7,56.7,30.10,SW,225,0.2,0.7,93,0.00,,,0.06,WUHU216HW,2013-05-20 10:47:00,
2013-05-20 06:48:00,58.7,56.7,30.10,WSW,248,0.7,0.7,93,0.00,,,0.06,WUHU216HW,2013-05-20 10:48:00,
2013-05-20 06:49:00,58.7,56.7,30.10,SW,225,0.7,0.7,93,0.00,,,0.06,WUHU216HW,2013-05-20 10:49:00,
2013-05-20 06:51:00,58.9,56.9,30.10,SW,225,0.4,1.8,93,0.00,,,0.06,WUHU216HW,2013-05-20 10:51:00,
2013-05-20 06:53:00,58.9,56.9,30.10,WNW,293,1.8,1.8,93,0.00,,,0.06,WUHU216HW,2013-05-20 10:53:00,
2013-05-20 06:54:00,58.9,56.9,30.10,SSW,203,0.2,1.8,93,0.00,,,0.06,WUHU216HW,2013-05-20 10:54:00,
2013-05-20 06:56:00,58.9,56.9,30.10,West,270,0.9,3.1,93,0.00,,,0.06,WUHU216HW,2013-05-20 10:56:00,
2013-05-20 06:59:00,58.9,56.9,30.10,SW,225,0.4,3.1,93,0.00,,,0.06,WUHU216HW,2013-05-20 10:59:00,
2013-05-20 07:01:00,58.9,56.9,30.10,WSW,248,0.0,3.1,93,0.00,,,0.06,WUHU216HW,2013-05-20 11:01:00,
2013-05-20 07:04:00,59.0,57.1,30.11,SSW,203,1.1,3.1,93,0.00,,,0.06,WUHU216HW,2013-05-20 11:04:00,
2013-05-20 07:05:00,59.0,57.1,30.11,SW,225,2.0,3.1,93,0.00,,,0.06,WUHU216HW,2013-05-20 11:05:00,
2013-05-20 07:07:00,59.0,57.1,30.11,SW,225,2.2,2.2,93,0.00,,,0.06,WUHU216HW,2013-05-20 11:07:00,
2013-05-20 07:09:00,59.0,57.1,30.11,SSW,203,1.6,2.2,93,0.00,,,0.06,WUHU216HW,2013-05-20 11:09:00,
2013-05-20 07:10:00,59.0,57.1,30.10,SSW,203,1.6,2.2,93,0.00,,,0.06,WUHU216HW,2013-05-20 11:10:00,
2013-05-20 07:12:00,59.2,57.3,30.10,WSW,248,1.1,2.7,93,0.00,,,0.06,WUHU216HW,2013-05-20 11:12:00,
2013-05-20 07:14:00,59.2,57.3,30.11,SSE,158,0.2,3.1,93,0.00,,,0.06,WUHU216HW,2013-05-20 11:14:00,
2013-05-20 07:15:00,59.2,57.3,30.10,SW,225,0.9,3.1,93,0.00,,,0.06,WUHU216HW,2013-05-20 11:15:00,
2013-05-20 07:17:00,59.4,57.4,30.11,WSW,248,0.4,3.1,93,0.00,,,0.06,WUHU216HW,2013-05-20 11:17:00,
2013-05-20 07:20:00,59.4,57.4,30.11,SSW,203,1.8,3.1,93,0.00,,,0.06,WUHU216HW,2013-05-20 11:20:00,
2013-05-20 07:21:00,59.4,57.4,30.11,SW,225,0.2,3.1,93,0.00,,,0.06,WUHU216HW,2013-05-20 11:21:00,
2013-05-20 07:22:00,59.4,57.4,30.10,SSW,203,1.8,3.1,93,0.00,,,0.06,WUHU216HW,2013-05-20 11:22:00,
2013-05-20 07:25:00,59.8,58.1,30.10,SSE,158,0.4,1.8,94,0.00,,,0.06,WUHU216HW,2013-05-20 11:25:00,
2013-05-20 07:26:00,59.8,58.1,30.11,SW,225,2.9,2.9,94,0.00,,,0.06,WUHU216HW,2013-05-20 11:26:00,
2013-05-20 07:29:00,59.9,58.2,30.11,SW,225,2.2,2.9,94,0.00,,,0.06,WUHU216HW,2013-05-20 11:29:00,
2013-05-20 07:30:00,60.1,58.4,30.11,SW,225,2.5,2.9,94,0.00,,,0.06,WUHU216HW,2013-05-20 11:30:00,
2013-05-20 07:31:00,60.1,58.4,30.11,SSW,203,0.4,2.9,94,0.00,,,0.06,WUHU216HW,2013-05-20 11:31:00,
2013-05-20 07:35:00,60.3,58.6,30.11,WSW,248,1.8,2.9,94,0.00,,,0.06,WUHU216HW,2013-05-20 11:35:00,
2013-05-20 07:36:00,60.3,58.6,30.11,WSW,248,1.8,2.9,94,0.00,,,0.06,WUHU216HW,2013-05-20 11:36:00,
2013-05-20 07:40:00,61.0,59.3,30.11,SSW,203,0.7,2.5,94,0.00,,,0.06,WUHU216HW,2013-05-20 11:40:00,
2013-05-20 07:41:00,61.0,59.3,30.11,SW,225,1.3,1.8,94,0.00,,,0.06,WUHU216HW,2013-05-20 11:41:00,
2013-05-20 07:42:00,60.8,59.1,30.11,SW,225,2.5,2.5,94,0.00,,,0.06,WUHU216HW,2013-05-20 11:42:00,
2013-05-20 07:45:00,60.8,59.1,30.12,SW,225,1.1,2.5,94,0.00,,,0.06,WUHU216HW,2013-05-20 11:45:00,
2013-05-20 07:46:00,60.8,59.1,30.12,SW,225,1.1,2.5,94,0.00,,,0.06,WUHU216HW,2013-05-20 11:46:00,
2013-05-20 07:47:00,60.8,59.1,30.12,SSW,203,0.4,2.5,94,0.00,,,0.06,WUHU216HW,2013-05-20 11:47:00,
2013-05-20 07:50:00,60.8,59.1,30.12,SW,225,1.1,2.5,94,0.00,,,0.06,WUHU216HW,2013-05-20 11:50:00,
2013-05-20 07:51:00,60.8,59.1,30.12,SW,225,1.1,2.5,94,0.00,,,0.06,WUHU216HW,2013-05-20 11:51:00,
2013-05-20 07:52:00,60.8,59.1,30.11,South,180,2.0,2.5,94,0.00,,,0.06,WUHU216HW,2013-05-20 11:52:00,
2013-05-20 07:53:00,60.8,59.1,30.11,South,180,2.0,2.0,94,0.00,,,0.06,WUHU216HW,2013-05-20 11:53:00,
2013-05-20 07:56:00,60.8,59.1,30.12,SSW,203,1.1,2.0,94,0.00,,,0.06,WUHU216HW,2013-05-20 11:56:00,
2013-05-20 07:57:00,60.8,59.1,30.12,SE,135,0.2,2.0,94,0.00,,,0.06,WUHU216HW,2013-05-20 11:57:00,
2013-05-20 07:58:00,60.8,59.1,30.12,SE,135,0.2,2.0,94,0.00,,,0.06,WUHU216HW,2013-05-20 11:58:00,
2013-05-20 08:01:00,60.8,59.1,30.12,SE,135,0.2,2.0,94,0.00,,,0.06,WUHU216HW,2013-05-20 12:01:00,
2013-05-20 08:02:00,60.8,59.1,30.12,SW,225,0.0,2.0,94,0.00,,,0.06,WUHU216HW,2013-05-20 12:02:00,
2013-05-20 08:03:00,60.8,59.1,30.12,SW,225,0.0,2.0,94,0.00,,,0.06,WUHU216HW,2013-05-20 12:03:00,
2013-05-20 08:07:00,61.2,59.5,30.12,South,180,0.2,0.4,94,0.00,,,0.06,WUHU216HW,2013-05-20 12:07:00,
2013-05-20 08:08:00,61.2,59.5,30.12,SSW,203,0.2,0.4,94,0.00,,,0.06,WUHU216HW,2013-05-20 12:08:00,
2013-05-20 08:12:00,61.6,59.9,30.12,SSW,203,0.7,0.7,94,0.00,,,0.06,WUHU216HW,2013-05-20 12:12:00,
2013-05-20 08:13:00,61.6,59.9,30.13,South,180,0.7,0.7,94,0.00,,,0.06,WUHU216HW,2013-05-20 12:13:00,
2013-05-20 08:17:00,61.6,59.9,30.13,South,180,0.7,0.7,94,0.00,,,0.06,WUHU216HW,2013-05-20 12:17:00,
2013-05-20 08:18:00,61.7,60.0,30.12,SSW,203,0.0,0.7,94,0.00,,,0.06,WUHU216HW,2013-05-20 12:18:00,
2013-05-20 08:22:00,61.9,60.2,30.12,WSW,248,2.2,2.2,94,0.00,,,0.06,WUHU216HW,2013-05-20 12:22:00,
2013-05-20 08:23:00,61.9,60.2,30.13,WSW,248,1.1,2.2,94,0.00,,,0.06,WUHU216HW,2013-05-20 12:23:00,
2013-05-20 08:24:00,62.3,60.6,30.13,West,270,3.6,3.6,94,0.00,,,0.06,WUHU216HW,2013-05-20 12:24:00,
2013-05-20 08:28:00,62.3,60.6,30.13,WSW,248,0.4,3.6,94,0.00,,,0.06,WUHU216HW,2013-05-20 12:28:00,
2013-05-20 08:29:00,62.3,60.6,30.12,WSW,248,0.4,3.6,94,0.00,,,0.06,WUHU216HW,2013-05-20 12:29:00,
2013-05-20 08:33:00,62.6,60.9,30.12,West,270,0.7,3.6,94,0.00,,,0.06,WUHU216HW,2013-05-20 12:33:00,
2013-05-20 08:34:00,62.6,60.9,30.13,West,270,0.7,3.6,94,0.00,,,0.06,WUHU216HW,2013-05-20 12:34:00,
2013-05-20 08:38:00,63.0,61.3,30.13,SSW,203,2.5,3.1,94,0.00,,,0.06,WUHU216HW,2013-05-20 12:38:00,
2013-05-20 08:39:00,63.0,61.3,30.13,SW,225,2.2,3.1,94,0.00,,,0.06,WUHU216HW,2013-05-20 12:39:00,
2013-05-20 08:43:00,63.0,61.3,30.12,SSW,203,2.9,3.4,94,0.00,,,0.06,WUHU216HW,2013-05-20 12:43:00,
2013-05-20 08:44:00,63.0,61.3,30.12,WSW,248,3.4,3.4,94,0.00,,,0.06,WUHU216HW,2013-05-20 12:44:00,
2013-05-20 08:45:00,63.0,61.3,30.12,SW,225,2.2,3.4,94,0.00,,,0.06,WUHU216HW,2013-05-20 12:45:00,
2013-05-20 08:48:00,63.0,61.3,30.12,SSW,203,1.8,3.4,94,0.00,,,0.06,WUHU216HW,2013-05-20 12:48:00,
2013-05-20 08:49:00,63.0,61.3,30.12,SSW,203,1.8,3.4,94,0.00,,,0.06,WUHU216HW,2013-05-20 12:49:00,
2013-05-20 08:50:00,63.0,61.3,30.12,SSW,203,1.8,3.4,94,0.00,,,0.06,WUHU216HW,2013-05-20 12:50:00,
2013-05-20 08:53:00,63.4,61.7,30.12,South,180,0.7,3.4,94,0.00,,,0.06,WUHU216HW,2013-05-20 12:53:00,
2013-05-20 08:54:00,63.4,61.7,30.12,SSE,158,1.3,3.4,94,0.00,,,0.06,WUHU216HW,2013-05-20 12:54:00,
2013-05-20 08:55:00,63.4,61.7,30.12,SW,225,2.0,2.5,94,0.00,,,0.06,WUHU216HW,2013-05-20 12:55:00,
2013-05-20 08:58:00,63.7,62.0,30.12,SW,225,2.2,3.4,94,0.00,,,0.06,WUHU216HW,2013-05-20 12:58:00,
2013-05-20 08:59:00,63.7,61.8,30.12,SW,225,0.4,3.4,93,0.00,,,0.06,WUHU216HW,2013-05-20 12:59:00,
2013-05-20 09:00:00,63.7,61.8,30.12,SW,225,4.0,4.0,93,0.00,,,0.06,WUHU216HW,2013-05-20 13:00:00,
2013-05-20 09:04:00,63.7,61.8,30.13,SW,225,4.0,4.0,93,0.00,,,0.06,WUHU216HW,2013-05-20 13:04:00,
2013-05-20 09:05:00,63.9,61.9,30.13,WSW,248,2.2,4.0,93,0.00,,,0.06,WUHU216HW,2013-05-20 13:05:00,
2013-05-20 09:06:00,63.9,61.9,30.12,SW,225,1.8,4.0,93,0.00,,,0.06,WUHU216HW,2013-05-20 13:06:00,
2013-05-20 09:09:00,64.1,62.1,30.13,WSW,248,2.2,4.0,93,0.00,,,0.06,WUHU216HW,2013-05-20 13:09:00,
2013-05-20 09:10:00,64.3,62.3,30.12,WSW,248,2.7,4.0,93,0.00,,,0.06,WUHU216HW,2013-05-20 13:10:00,
2013-05-20 09:11:00,64.3,62.3,30.12,WSW,248,0.9,4.0,93,0.00,,,0.06,WUHU216HW,2013-05-20 13:11:00,
2013-05-20 09:14:00,64.4,62.5,30.12,WSW,248,0.2,4.0,93,0.00,,,0.06,WUHU216HW,2013-05-20 13:14:00,
2013-05-20 09:15:00,64.4,62.5,30.12,WSW,248,1.6,2.7,93,0.00,,,0.06,WUHU216HW,2013-05-20 13:15:00,
2013-05-20 09:17:00,64.4,62.5,30.13,WSW,248,1.1,2.7,93,0.00,,,0.06,WUHU216HW,2013-05-20 13:17:00,
2013-05-20 09:19:00,64.6,62.6,30.13,WSW,248,2.2,2.7,93,0.00,,,0.06,WUHU216HW,2013-05-20 13:19:00,
2013-05-20 09:20:00,64.6,62.6,30.13,WSW,248,2.2,2.7,93,0.00,,,0.06,WUHU216HW,2013-05-20 13:20:00,
2013-05-20 09:22:00,64.6,62.6,30.12,WSW,248,2.2,2.5,93,0.00,,,0.06,WUHU216HW,2013-05-20 13:22:00,
2013-05-20 09:24:00,65.0,62.9,30.12,SSW,203,0.2,2.5,93,0.00,,,0.06,WUHU216HW,2013-05-20 13:24:00,
2013-05-20 09:25:00,65.0,62.9,30.12,SSW,203,0.0,2.5,93,0.00,,,0.06,WUHU216HW,2013-05-20 13:25:00,
2013-05-20 09:27:00,64.8,62.7,30.12,South,180,0.0,2.2,93,0.00,,,0.06,WUHU216HW,2013-05-20 13:27:00,
2013-05-20 09:30:00,64.8,62.7,30.12,South,180,0.0,2.2,93,0.00,,,0.06,WUHU216HW,2013-05-20 13:30:00,
2013-05-20 09:32:00,64.8,62.7,30.12,SW,225,1.1,1.1,93,0.00,,,0.06,WUHU216HW,2013-05-20 13:32:00,
2013-05-20 09:35:00,65.0,62.9,30.12,SW,225,0.4,1.1,93,0.00,,,0.06,WUHU216HW,2013-05-20 13:35:00,
2013-05-20 09:36:00,65.0,62.9,30.12,SSW,203,0.2,1.1,93,0.00,,,0.06,WUHU216HW,2013-05-20 13:36:00,
2013-05-20 09:37:00,65.2,63.1,30.12,SSE,158,0.2,1.1,93,0.00,,,0.06,WUHU216HW,2013-05-20 13:37:00,
2013-05-20 09:40:00,65.3,63.3,30.12,SSE,158,0.0,1.1,93,0.00,,,0.06,WUHU216HW,2013-05-20 13:40:00,
2013-05-20 09:41:00,65.5,63.5,30.12,South,180,0.2,1.1,93,0.00,,,0.06,WUHU216HW,2013-05-20 13:41:00,
2013-05-20 09:42:00,65.7,63.6,30.12,South,180,0.0,1.1,93,0.00,,,0.06,WUHU216HW,2013-05-20 13:42:00,
2013-05-20 09:45:00,65.7,63.6,30.12,South,180,0.9,0.9,93,0.00,,,0.06,WUHU216HW,2013-05-20 13:45:00,
2013-05-20 09:46:00,65.7,63.6,30.12,South,180,0.9,0.9,93,0.00,,,0.06,WUHU216HW,2013-05-20 13:46:00,
2013-05-20 09:47:00,65.7,63.6,30.12,South,180,0.9,0.9,93,0.00,,,0.06,WUHU216HW,2013-05-20 13:47:00,
2013-05-20 09:50:00,66.1,63.6,30.12,SSW,203,0.9,1.8,92,0.00,,,0.06,WUHU216HW,2013-05-20 13:50:00,
2013-05-20 09:51:00,66.1,63.6,30.12,SSW,203,0.9,1.8,92,0.00,,,0.06,WUHU216HW,2013-05-20 13:51:00,
2013-05-20 09:52:00,66.2,64.1,30.12,SSW,203,0.0,1.8,93,0.00,,,0.06,WUHU216HW,2013-05-20 13:52:00,
2013-05-20 09:56:00,66.4,64.3,30.11,WSW,248,0.9,1.8,93,0.00,,,0.06,WUHU216HW,2013-05-20 13:56:00,
2013-05-20 09:57:00,66.4,64.3,30.11,WSW,248,0.9,1.8,93,0.00,,,0.06,WUHU216HW,2013-05-20 13:57:00,
2013-05-20 10:01:00,67.5,65.1,30.11,South,180,0.2,0.9,92,0.00,,,0.06,WUHU216HW,2013-05-20 14:01:00,
2013-05-20 10:02:00,67.5,65.1,30.11,South,180,0.2,0.9,92,0.00,,,0.06,WUHU216HW,2013-05-20 14:02:00,
2013-05-20 10:06:00,68.0,65.0,30.12,SSW,203,1.1,1.3,90,0.00,,,0.06,WUHU216HW,2013-05-20 14:06:00,
2013-05-20 10:07:00,68.0,65.0,30.12,SSW,203,1.1,1.3,90,0.00,,,0.06,WUHU216HW,2013-05-20 14:07:00,
2013-05-20 10:08:00,68.0,65.0,30.12,SSW,203,0.4,1.3,90,0.00,,,0.06,WUHU216HW,2013-05-20 14:08:00,
2013-05-20 10:11:00,68.0,64.6,30.12,SSE,158,0.4,1.3,89,0.00,,,0.06,WUHU216HW,2013-05-20 14:11:00,
2013-05-20 10:12:00,68.0,64.6,30.12,SSW,203,0.2,1.3,89,0.00,,,0.06,WUHU216HW,2013-05-20 14:12:00,
2013-05-20 10:13:00,68.0,64.6,30.12,SSW,203,0.2,1.3,89,0.00,,,0.06,WUHU216HW,2013-05-20 14:13:00,
2013-05-20 10:16:00,68.2,64.5,30.12,SSW,203,0.4,1.1,88,0.00,,,0.06,WUHU216HW,2013-05-20 14:16:00,
2013-05-20 10:17:00,68.2,64.5,30.12,SSW,203,0.9,0.9,88,0.00,,,0.06,WUHU216HW,2013-05-20 14:17:00,
2013-05-20 10:18:00,68.4,64.7,30.12,SSW,203,0.9,0.9,88,0.00,,,0.06,WUHU216HW,2013-05-20 14:18:00,
2013-05-20 10:22:00,68.6,64.5,30.12,SSE,158,0.9,1.8,87,0.00,,,0.06,WUHU216HW,2013-05-20 14:22:00,
2013-05-20 10:23:00,68.8,64.4,30.12,SSW,203,0.7,1.8,86,0.00,,,0.06,WUHU216HW,2013-05-20 14:23:00,
2013-05-20 10:27:00,68.9,64.3,30.12,WNW,293,2.2,2.2,85,0.00,,,0.06,WUHU216HW,2013-05-20 14:27:00,
2013-05-20 10:28:00,68.9,64.3,30.12,WNW,293,2.2,2.2,85,0.00,,,0.06,WUHU216HW,2013-05-20 14:28:00,
2013-05-20 10:32:00,69.5,64.4,30.11,SSW,203,0.4,2.2,84,0.00,,,0.06,WUHU216HW,2013-05-20 14:32:00,
2013-05-20 10:33:00,69.5,64.7,30.11,South,180,0.4,2.2,85,0.00,,,0.06,WUHU216HW,2013-05-20 14:33:00,
2013-05-20 10:34:00,69.7,64.5,30.11,SW,225,0.4,2.2,84,0.00,,,0.06,WUHU216HW,2013-05-20 14:34:00,
2013-05-20 10:37:00,69.8,64.7,30.12,West,270,0.4,2.2,84,0.00,,,0.06,WUHU216HW,2013-05-20 14:37:00,
2013-05-20 10:38:00,69.8,64.7,30.12,West,270,0.4,2.2,84,0.00,,,0.06,WUHU216HW,2013-05-20 14:38:00,
2013-05-20 10:39:00,70.6,65.1,30.12,South,180,1.8,2.2,83,0.00,,,0.06,WUHU216HW,2013-05-20 14:39:00,
2013-05-20 10:42:00,70.9,65.2,30.12,West,270,0.7,1.8,82,0.00,,,0.06,WUHU216HW,2013-05-20 14:42:00,
2013-05-20 10:43:00,70.9,65.2,30.12,WSW,248,1.8,1.8,82,0.00,,,0.06,WUHU216HW,2013-05-20 14:43:00,
2013-05-20 10:44:00,71.1,65.4,30.12,SSW,203,1.1,1.8,82,0.00,,,0.06,WUHU216HW,2013-05-20 14:44:00,
2013-05-20 10:47:00,71.6,65.2,30.12,SW,225,2.7,2.7,80,0.00,,,0.06,WUHU216HW,2013-05-20 14:47:00,
2013-05-20 10:48:00,71.6,65.2,30.12,SW,225,1.8,2.7,80,0.00,,,0.06,WUHU216HW,2013-05-20 14:48:00,
2013-05-20 10:49:00,71.6,65.2,30.12,SW,225,1.8,2.7,80,0.00,,,0.06,WUHU216HW,2013-05-20 14:49:00,
2013-05-20 10:52:00,72.2,65.0,30.12,SSW,203,1.6,2.7,78,0.00,,,0.06,WUHU216HW,2013-05-20 14:52:00,
2013-05-20 10:53:00,72.2,64.5,30.12,SW,225,1.1,2.7,77,0.00,,,0.06,WUHU216HW,2013-05-20 14:53:00,
2013-05-20 10:54:00,72.2,64.5,30.12,SW,225,1.1,2.7,77,0.00,,,0.06,WUHU216HW,2013-05-20 14:54:00,
2013-05-20 10:57:00,72.2,64.5,30.11,SW,225,1.1,1.8,77,0.00,,,0.06,WUHU216HW,2013-05-20 14:57:00,
2013-05-20 10:58:00,72.2,64.5,30.12,SW,225,1.1,1.8,77,0.00,,,0.06,WUHU216HW,2013-05-20 14:58:00,
2013-05-20 10:59:00,72.4,64.7,30.12,South,180,1.1,1.8,77,0.00,,,0.06,WUHU216HW,2013-05-20 14:59:00,
2013-05-20 11:00:00,72.4,64.7,30.12,SSW,203,0.4,1.8,77,0.00,,,0.06,WUHU216HW,2013-05-20 15:00:00,
2013-05-20 11:02:00,72.4,64.7,30.12,SW,225,2.0,2.0,77,0.00,,,0.06,WUHU216HW,2013-05-20 15:02:00,
2013-05-20 11:04:00,72.4,64.7,30.12,SSW,203,3.4,3.4,77,0.00,,,0.06,WUHU216HW,2013-05-20 15:04:00,
2013-05-20 11:05:00,72.4,64.7,30.11,South,180,1.8,3.4,77,0.00,,,0.06,WUHU216HW,2013-05-20 15:05:00,
2013-05-20 11:07:00,72.4,64.7,30.11,SE,135,0.7,3.4,77,0.00,,,0.06,WUHU216HW,2013-05-20 15:07:00,
2013-05-20 11:09:00,72.4,64.4,30.11,SSE,158,0.9,3.4,76,0.00,,,0.06,WUHU216HW,2013-05-20 15:09:00,
2013-05-20 11:10:00,72.5,64.9,30.11,South,180,1.6,3.4,77,0.00,,,0.06,WUHU216HW,2013-05-20 15:10:00,
2013-05-20 11:13:00,72.5,64.5,30.12,WSW,248,3.1,3.4,76,0.00,,,0.06,WUHU216HW,2013-05-20 15:13:00,
2013-05-20 11:15:00,72.5,64.5,30.12,SSW,203,0.7,3.4,76,0.00,,,0.06,WUHU216HW,2013-05-20 15:15:00,
2013-05-20 11:18:00,72.5,64.5,30.12,SSW,203,0.7,3.4,76,0.00,,,0.06,WUHU216HW,2013-05-20 15:18:00,
2013-05-20 11:20:00,72.4,64.0,30.12,South,180,1.8,3.4,75,0.00,,,0.06,WUHU216HW,2013-05-20 15:20:00,
2013-05-20 11:21:00,72.2,63.5,30.12,WSW,248,3.4,3.4,74,0.00,,,0.06,WUHU216HW,2013-05-20 15:21:00,
2013-05-20 11:23:00,71.8,63.1,30.11,WSW,248,2.0,4.0,74,0.00,,,0.06,WUHU216HW,2013-05-20 15:23:00,
2013-05-20 11:25:00,71.8,63.1,30.12,SSE,158,1.3,4.0,74,0.00,,,0.06,WUHU216HW,2013-05-20 15:25:00,
2013-05-20 11:26:00,71.8,63.1,30.12,SSE,158,1.3,4.0,74,0.00,,,0.06,WUHU216HW,2013-05-20 15:26:00,
2013-05-20 11:28:00,70.9,62.2,30.11,SW,225,3.4,4.0,74,0.00,,,0.06,WUHU216HW,2013-05-20 15:28:00,
2013-05-20 11:31:00,70.2,61.8,30.11,SSW,203,1.8,4.0,75,0.00,,,0.06,WUHU216HW,2013-05-20 15:31:00,
2013-05-20 11:33:00,69.8,61.5,30.11,SW,225,3.8,3.8,75,0.00,,,0.06,WUHU216HW,2013-05-20 15:33:00,
2013-05-20 11:36:00,69.5,61.9,30.11,SSW,203,2.2,3.8,77,0.00,,,0.06,WUHU216HW,2013-05-20 15:36:00,
2013-05-20 11:37:00,69.5,61.9,30.11,SSW,203,2.2,3.8,77,0.00,,,0.06,WUHU216HW,2013-05-20 15:37:00,
2013-05-20 11:38:00,69.5,61.9,30.10,SSW,203,2.2,3.8,77,0.00,,,0.06,WUHU216HW,2013-05-20 15:38:00,
2013-05-20 11:41:00,69.5,61.9,30.10,SSW,203,2.2,3.8,77,0.00,,,0.06,WUHU216HW,2013-05-20 15:41:00,
2013-05-20 11:42:00,69.5,61.9,30.10,SSW,203,2.2,3.8,77,0.00,,,0.06,WUHU216HW,2013-05-20 15:42:00,
2013-05-20 11:43:00,69.8,62.7,30.10,SSW,203,0.4,3.8,78,0.00,,,0.06,WUHU216HW,2013-05-20 15:43:00,
2013-05-20 11:46:00,69.8,62.7,30.10,SSW,203,1.3,2.2,78,0.00,,,0.06,WUHU216HW,2013-05-20 15:46:00,
2013-05-20 11:47:00,69.8,62.7,30.10,SSW,203,1.3,2.2,78,0.00,,,0.06,WUHU216HW,2013-05-20 15:47:00,
2013-05-20 11:48:00,70.7,63.1,30.10,SSE,158,4.3,4.3,77,0.00,,,0.06,WUHU216HW,2013-05-20 15:48:00,
2013-05-20 11:51:00,70.7,63.1,30.10,SSE,158,4.3,4.3,77,0.00,,,0.06,WUHU216HW,2013-05-20 15:51:00,
2013-05-20 11:53:00,71.6,64.0,30.10,WSW,248,2.7,4.3,77,0.00,,,0.06,WUHU216HW,2013-05-20 15:53:00,
2013-05-20 11:56:00,71.6,63.6,30.10,SSE,158,2.0,4.3,76,0.00,,,0.06,WUHU216HW,2013-05-20 15:56:00,
2013-05-20 11:57:00,71.6,63.6,30.10,SSE,158,2.0,4.3,76,0.00,,,0.06,WUHU216HW,2013-05-20 15:57:00,
2013-05-20 11:58:00,71.6,63.6,30.10,SSE,158,2.0,4.3,76,0.00,,,0.06,WUHU216HW,2013-05-20 15:58:00,
2013-05-20 11:59:00,71.8,63.5,30.10,SW,225,1.1,4.3,75,0.00,,,0.06,WUHU216HW,2013-05-20 15:59:00,
2013-05-20 12:01:00,72.0,64.0,30.10,SW,225,2.2,4.3,76,0.00,,,0.06,WUHU216HW,2013-05-20 16:01:00,
2013-05-20 12:02:00,72.0,63.6,30.10,SSE,158,0.9,4.3,75,0.00,,,0.06,WUHU216HW,2013-05-20 16:02:00,
2013-05-20 12:03:00,72.0,63.6,30.10,SW,225,0.4,2.7,75,0.00,,,0.06,WUHU216HW,2013-05-20 16:03:00,
2013-05-20 12:04:00,72.0,63.6,30.10,SSE,158,0.4,2.2,75,0.00,,,0.06,WUHU216HW,2013-05-20 16:04:00,
2013-05-20 12:07:00,72.0,63.6,30.10,East,90,0.4,2.2,75,0.00,,,0.06,WUHU216HW,2013-05-20 16:07:00,
2013-05-20 12:08:00,72.0,63.6,30.10,SSW,203,0.0,2.2,75,0.00,,,0.06,WUHU216HW,2013-05-20 16:08:00,
2013-05-20 12:09:00,72.0,63.6,30.10,SW,225,0.4,2.2,75,0.00,,,0.06,WUHU216HW,2013-05-20 16:09:00,
2013-05-20 12:12:00,71.8,63.5,30.10,South,180,0.2,0.9,75,0.00,,,0.06,WUHU216HW,2013-05-20 16:12:00,
2013-05-20 12:13:00,71.8,63.1,30.10,SW,225,2.2,2.2,74,0.00,,,0.06,WUHU216HW,2013-05-20 16:13:00,
2013-05-20 12:15:00,71.8,63.1,30.09,South,180,0.4,2.2,74,0.00,,,0.06,WUHU216HW,2013-05-20 16:15:00,
2013-05-20 12:17:00,71.6,63.3,30.09,South,180,1.3,2.2,75,0.00,,,0.06,WUHU216HW,2013-05-20 16:17:00,
2013-05-20 12:18:00,71.6,62.9,30.09,SW,225,0.4,2.2,74,0.00,,,0.06,WUHU216HW,2013-05-20 16:18:00,
2013-05-20 12:20:00,71.6,62.9,30.09,SW,225,0.4,2.2,74,0.00,,,0.06,WUHU216HW,2013-05-20 16:20:00,
2013-05-20 12:22:00,71.1,62.4,30.09,WSW,248,0.4,2.2,74,0.00,,,0.06,WUHU216HW,2013-05-20 16:22:00,
2013-05-20 12:23:00,71.1,62.4,30.09,WSW,248,0.4,2.2,74,0.00,,,0.06,WUHU216HW,2013-05-20 16:23:00,
2013-05-20 12:25:00,71.1,62.4,30.09,SSW,203,1.6,1.6,74,0.00,,,0.06,WUHU216HW,2013-05-20 16:25:00,
2013-05-20 12:27:00,71.1,62.4,30.09,SSE,158,2.0,2.0,74,0.00,,,0.06,WUHU216HW,2013-05-20 16:27:00,
2013-05-20 12:28:00,71.1,62.4,30.09,SSE,158,2.0,2.0,74,0.00,,,0.06,WUHU216HW,2013-05-20 16:28:00,
2013-05-20 12:30:00,71.6,63.3,30.09,NW,315,0.2,2.0,75,0.00,,,0.06,WUHU216HW,2013-05-20 16:30:00,
2013-05-20 12:33:00,72.0,63.6,30.09,SW,225,0.4,2.0,75,0.00,,,0.06,WUHU216HW,2013-05-20 16:33:00,
2013-05-20 12:36:00,72.5,64.2,30.09,SSW,203,0.9,2.0,75,0.00,,,0.06,WUHU216HW,2013-05-20 16:36:00,
2013-05-20 12:38:00,72.9,64.5,30.09,SSW,203,0.4,2.0,75,0.00,,,0.06,WUHU216HW,2013-05-20 16:38:00,
2013-05-20 12:39:00,73.1,64.7,30.09,WSW,248,0.7,2.0,75,0.00,,,0.06,WUHU216HW,2013-05-20 16:39:00,
2013-05-20 12:41:00,73.1,64.7,30.09,South,180,0.7,1.8,75,0.00,,,0.06,WUHU216HW,2013-05-20 16:41:00,
2013-05-20 12:43:00,73.1,64.0,30.09,SSE,158,3.1,3.1,73,0.00,,,0.06,WUHU216HW,2013-05-20 16:43:00,
2013-05-20 12:44:00,73.1,64.0,30.09,WSW,248,0.4,3.1,73,0.00,,,0.06,WUHU216HW,2013-05-20 16:44:00,
2013-05-20 12:46:00,72.9,63.8,30.09,ENE,68,1.6,3.1,73,0.00,,,0.06,WUHU216HW,2013-05-20 16:46:00,
2013-05-20 12:48:00,72.9,63.8,30.08,ENE,68,1.6,3.1,73,0.00,,,0.06,WUHU216HW,2013-05-20 16:48:00,
2013-05-20 12:49:00,72.9,63.8,30.08,ENE,68,1.6,3.1,73,0.00,,,0.06,WUHU216HW,2013-05-20 16:49:00,
2013-05-20 12:50:00,73.1,64.4,30.08,SSE,158,0.4,3.1,74,0.00,,,0.06,WUHU216HW,2013-05-20 16:50:00,
2013-05-20 12:51:00,73.1,64.4,30.08,WSW,248,0.0,3.1,74,0.00,,,0.06,WUHU216HW,2013-05-20 16:51:00,
2013-05-20 12:53:00,73.3,64.5,30.08,SE,135,0.7,3.1,74,0.00,,,0.06,WUHU216HW,2013-05-20 16:53:00,
2013-05-20 12:54:00,73.3,64.5,30.08,SE,135,0.7,3.1,74,0.00,,,0.06,WUHU216HW,2013-05-20 16:54:00,
2013-05-20 12:55:00,73.3,64.2,30.08,SSW,203,2.0,2.0,73,0.00,,,0.06,WUHU216HW,2013-05-20 16:55:00,
2013-05-20 12:56:00,73.3,64.2,30.08,SSW,203,2.0,2.0,73,0.00,,,0.06,WUHU216HW,2013-05-20 16:56:00,
2013-05-20 12:58:00,72.7,63.2,30.08,WSW,248,1.8,2.0,72,0.00,,,0.06,WUHU216HW,2013-05-20 16:58:00,
2013-05-20 12:59:00,72.7,63.2,30.08,WSW,248,3.4,3.4,72,0.00,,,0.06,WUHU216HW,2013-05-20 16:59:00,
2013-05-20 13:00:00,72.5,63.0,30.08,WSW,248,1.8,3.4,72,0.00,,,0.06,WUHU216HW,2013-05-20 17:00:00,
2013-05-20 13:01:00,72.5,63.0,30.08,WSW,248,1.8,3.4,72,0.00,,,0.06,WUHU216HW,2013-05-20 17:01:00,
2013-05-20 13:03:00,72.2,62.6,30.08,ENE,68,2.0,4.7,72,0.00,,,0.06,WUHU216HW,2013-05-20 17:03:00,
2013-05-20 13:04:00,72.2,62.6,30.08,West,270,0.4,4.7,72,0.00,,,0.06,WUHU216HW,2013-05-20 17:04:00,
2013-05-20 13:05:00,72.0,62.5,30.07,SSW,203,1.6,4.7,72,0.00,,,0.06,WUHU216HW,2013-05-20 17:05:00,
2013-05-20 13:06:00,72.0,62.5,30.08,SSW,203,1.6,4.7,72,0.00,,,0.06,WUHU216HW,2013-05-20 17:06:00,
2013-05-20 13:08:00,72.0,62.5,30.08,SSW,203,1.6,4.7,72,0.00,,,0.06,WUHU216HW,2013-05-20 17:08:00,
2013-05-20 13:09:00,71.5,61.9,30.08,WSW,248,0.7,4.7,72,0.00,,,0.06,WUHU216HW,2013-05-20 17:09:00,
2013-05-20 13:10:00,71.5,61.9,30.07,South,180,2.9,4.7,72,0.00,,,0.06,WUHU216HW,2013-05-20 17:10:00,
2013-05-20 13:11:00,71.5,61.9,30.08,SSE,158,4.5,4.7,72,0.00,,,0.06,WUHU216HW,2013-05-20 17:11:00,
2013-05-20 13:14:00,71.5,62.4,30.07,SW,225,1.8,4.5,73,0.00,,,0.06,WUHU216HW,2013-05-20 17:14:00,
2013-05-20 13:15:00,71.5,62.4,30.07,South,180,1.8,4.5,73,0.00,,,0.06,WUHU216HW,2013-05-20 17:15:00,
2013-05-20 13:16:00,71.5,62.4,30.07,South,180,1.8,4.5,73,0.00,,,0.06,WUHU216HW,2013-05-20 17:16:00,
2013-05-20 13:19:00,71.5,62.4,30.07,South,180,1.8,4.5,73,0.00,,,0.06,WUHU216HW,2013-05-20 17:19:00,
2013-05-20 13:20:00,71.6,62.1,30.07,South,180,2.2,4.5,72,0.00,,,0.06,WUHU216HW,2013-05-20 17:20:00,
2013-05-20 13:21:00,71.6,62.1,30.07,ESE,113,1.1,4.5,72,0.00,,,0.06,WUHU216HW,2013-05-20 17:21:00,
2013-05-20 13:22:00,71.6,62.1,30.07,ESE,113,1.1,2.7,72,0.00,,,0.06,WUHU216HW,2013-05-20 17:22:00,
2013-05-20 13:24:00,71.8,62.3,30.07,SW,225,0.4,2.7,72,0.00,,,0.06,WUHU216HW,2013-05-20 17:24:00,
2013-05-20 13:25:00,71.8,61.9,30.07,SW,225,2.0,2.5,71,0.00,,,0.06,WUHU216HW,2013-05-20 17:25:00,
2013-05-20 13:26:00,71.8,61.9,30.07,SW,225,2.0,2.5,71,0.00,,,0.06,WUHU216HW,2013-05-20 17:26:00,
2013-05-20 13:27:00,71.6,61.7,30.07,SW,225,2.7,2.7,71,0.00,,,0.06,WUHU216HW,2013-05-20 17:27:00,
2013-05-20 13:29:00,71.5,61.6,30.07,SSW,203,1.1,3.6,71,0.00,,,0.06,WUHU216HW,2013-05-20 17:29:00,
2013-05-20 13:30:00,71.5,61.9,30.07,South,180,0.9,3.6,72,0.00,,,0.06,WUHU216HW,2013-05-20 17:30:00,
2013-05-20 13:31:00,71.3,61.7,30.07,WNW,293,2.5,3.6,72,0.00,,,0.06,WUHU216HW,2013-05-20 17:31:00,
2013-05-20 13:32:00,71.3,61.7,30.07,NNW,338,1.3,3.6,72,0.00,,,0.06,WUHU216HW,2013-05-20 17:32:00,
2013-05-20 13:34:00,71.3,61.7,30.07,NNW,338,1.3,3.6,72,0.00,,,0.06,WUHU216HW,2013-05-20 17:34:00,
2013-05-20 13:35:00,71.3,61.7,30.07,NNW,338,1.3,3.6,72,0.00,,,0.06,WUHU216HW,2013-05-20 17:35:00,
2013-05-20 13:36:00,71.3,61.7,30.07,NNW,338,1.3,3.6,72,0.00,,,0.06,WUHU216HW,2013-05-20 17:36:00,
2013-05-20 13:37:00,71.5,62.4,30.07,WNW,293,1.1,4.3,73,0.00,,,0.06,WUHU216HW,2013-05-20 17:37:00,
2013-05-20 13:39:00,71.6,62.1,30.06,SE,135,2.7,4.3,72,0.00,,,0.06,WUHU216HW,2013-05-20 17:39:00,
2013-05-20 13:40:00,71.6,61.7,30.06,SE,135,3.1,4.3,71,0.00,,,0.06,WUHU216HW,2013-05-20 17:40:00,
2013-05-20 13:41:00,71.6,61.7,30.06,SSE,158,2.5,4.3,71,0.00,,,0.06,WUHU216HW,2013-05-20 17:41:00,
2013-05-20 13:42:00,71.6,62.1,30.06,SW,225,1.8,4.3,72,0.00,,,0.06,WUHU216HW,2013-05-20 17:42:00,
2013-05-20 13:44:00,71.8,62.3,30.06,WNW,293,3.4,4.3,72,0.00,,,0.06,WUHU216HW,2013-05-20 17:44:00,
2013-05-20 13:45:00,72.0,62.5,30.06,WSW,248,2.0,4.3,72,0.00,,,0.06,WUHU216HW,2013-05-20 17:45:00,
2013-05-20 13:46:00,72.2,62.6,30.06,SE,135,1.3,4.3,72,0.00,,,0.06,WUHU216HW,2013-05-20 17:46:00,
2013-05-20 13:47:00,72.2,63.1,30.06,WSW,248,2.5,4.3,73,0.00,,,0.06,WUHU216HW,2013-05-20 17:47:00,
2013-05-20 13:50:00,72.4,62.8,30.06,SSW,203,4.7,4.7,72,0.00,,,0.06,WUHU216HW,2013-05-20 17:50:00,
2013-05-20 13:51:00,72.4,62.8,30.06,SSW,203,4.7,4.7,72,0.00,,,0.06,WUHU216HW,2013-05-20 17:51:00,
2013-05-20 13:52:00,72.4,62.8,30.06,SSW,203,4.7,4.7,72,0.00,,,0.06,WUHU216HW,2013-05-20 17:52:00,
2013-05-20 13:53:00,72.4,62.8,30.06,SSW,203,4.7,4.7,72,0.00,,,0.06,WUHU216HW,2013-05-20 17:53:00,
2013-05-20 13:55:00,72.7,63.2,30.06,West,270,1.6,4.7,72,0.00,,,0.06,WUHU216HW,2013-05-20 17:55:00,
2013-05-20 13:56:00,72.7,63.2,30.06,WSW,248,1.8,4.7,72,0.00,,,0.06,WUHU216HW,2013-05-20 17:56:00,
2013-05-20 13:57:00,72.9,63.4,30.06,SW,225,2.9,4.7,72,0.00,,,0.06,WUHU216HW,2013-05-20 17:57:00,
2013-05-20 13:58:00,72.9,63.4,30.06,SW,225,2.9,4.7,72,0.00,,,0.06,WUHU216HW,2013-05-20 17:58:00,
2013-05-20 14:00:00,72.9,63.4,30.06,SW,225,2.9,4.7,72,0.00,,,0.06,WUHU216HW,2013-05-20 18:00:00,
2013-05-20 14:01:00,73.1,63.2,30.06,SSW,203,2.0,4.7,71,0.00,,,0.06,WUHU216HW,2013-05-20 18:01:00,
2013-05-20 14:02:00,73.1,63.2,30.06,SW,225,2.0,4.7,71,0.00,,,0.06,WUHU216HW,2013-05-20 18:02:00,
2013-05-20 14:03:00,73.1,63.2,30.06,West,270,2.5,4.7,71,0.00,,,0.06,WUHU216HW,2013-05-20 18:03:00,
2013-05-20 14:05:00,73.1,63.2,30.05,West,270,2.5,2.9,71,0.00,,,0.06,WUHU216HW,2013-05-20 18:05:00,
2013-05-20 14:06:00,72.5,62.6,30.05,SW,225,4.9,4.9,71,0.00,,,0.06,WUHU216HW,2013-05-20 18:06:00,
2013-05-20 14:07:00,72.5,63.0,30.05,South,180,1.1,4.9,72,0.00,,,0.06,WUHU216HW,2013-05-20 18:07:00,
2013-05-20 14:08:00,72.4,62.8,30.05,WSW,248,1.8,4.9,72,0.00,,,0.06,WUHU216HW,2013-05-20 18:08:00,
2013-05-20 14:10:00,72.4,62.8,30.05,SE,135,4.7,4.9,72,0.00,,,0.06,WUHU216HW,2013-05-20 18:10:00,
2013-05-20 14:11:00,72.5,63.0,30.05,West,270,2.0,4.9,72,0.00,,,0.06,WUHU216HW,2013-05-20 18:11:00,
2013-05-20 14:12:00,72.5,63.0,30.05,SSW,203,1.8,4.9,72,0.00,,,0.06,WUHU216HW,2013-05-20 18:12:00,
2013-05-20 14:13:00,72.7,63.2,30.05,SSE,158,2.5,4.9,72,0.00,,,0.06,WUHU216HW,2013-05-20 18:13:00,
2013-05-20 14:14:00,72.7,63.6,30.05,SSW,203,0.9,4.9,73,0.00,,,0.06,WUHU216HW,2013-05-20 18:14:00,
2013-05-20 14:16:00,72.9,63.4,30.05,SSW,203,4.5,4.9,72,0.00,,,0.06,WUHU216HW,2013-05-20 18:16:00,
2013-05-20 14:17:00,72.9,63.4,30.05,SSW,203,3.4,4.7,72,0.00,,,0.06,WUHU216HW,2013-05-20 18:17:00,
2013-05-20 14:18:00,72.9,63.4,30.05,SSW,203,5.8,5.8,72,0.00,,,0.06,WUHU216HW,2013-05-20 18:18:00,
2013-05-20 14:19:00,73.1,63.5,30.05,SW,225,1.8,5.8,72,0.00,,,0.06,WUHU216HW,2013-05-20 18:19:00,
2013-05-20 14:21:00,73.1,63.5,30.05,SSE,158,2.5,5.8,72,0.00,,,0.06,WUHU216HW,2013-05-20 18:21:00,
2013-05-20 14:22:00,73.1,63.5,30.04,SSE,158,2.5,5.8,72,0.00,,,0.06,WUHU216HW,2013-05-20 18:22:00,
2013-05-20 14:23:00,73.1,63.5,30.04,SSE,158,2.5,5.8,72,0.00,,,0.06,WUHU216HW,2013-05-20 18:23:00,
2013-05-20 14:24:00,72.9,63.0,30.04,WSW,248,1.8,5.8,71,0.00,,,0.06,WUHU216HW,2013-05-20 18:24:00,
2013-05-20 14:26:00,72.7,62.8,30.04,South,180,1.6,5.8,71,0.00,,,0.06,WUHU216HW,2013-05-20 18:26:00,
2013-05-20 14:27:00,72.7,62.8,30.04,SW,225,2.0,5.8,71,0.00,,,0.06,WUHU216HW,2013-05-20 18:27:00,
2013-05-20 14:28:00,72.7,62.8,30.04,SSE,158,2.5,5.8,71,0.00,,,0.06,WUHU216HW,2013-05-20 18:28:00,
2013-05-20 14:29:00,72.9,63.0,30.04,West,270,1.1,2.5,71,0.00,,,0.06,WUHU216HW,2013-05-20 18:29:00,
2013-05-20 14:30:00,72.9,63.0,30.04,West,270,4.0,4.0,71,0.00,,,0.06,WUHU216HW,2013-05-20 18:30:00,
2013-05-20 14:31:00,72.9,63.0,30.04,West,270,4.0,4.0,71,0.00,,,0.06,WUHU216HW,2013-05-20 18:31:00,
2013-05-20 14:32:00,72.9,63.0,30.04,West,270,4.0,4.0,71,0.00,,,0.06,WUHU216HW,2013-05-20 18:32:00,
2013-05-20 14:33:00,72.9,63.0,30.04,West,270,4.0,4.0,71,0.00,,,0.06,WUHU216HW,2013-05-20 18:33:00,
2013-05-20 14:34:00,72.5,62.6,30.04,SSE,158,0.7,4.0,71,0.00,,,0.06,WUHU216HW,2013-05-20 18:34:00,
2013-05-20 14:35:00,72.5,62.6,30.04,South,180,2.5,4.0,71,0.00,,,0.06,WUHU216HW,2013-05-20 18:35:00,
2013-05-20 14:36:00,72.5,62.6,30.04,South,180,2.5,4.0,71,0.00,,,0.06,WUHU216HW,2013-05-20 18:36:00,
2013-05-20 14:37:00,72.5,62.6,30.04,South,180,2.5,4.0,71,0.00,,,0.06,WUHU216HW,2013-05-20 18:37:00,
2013-05-20 14:38:00,72.5,62.6,30.04,South,180,2.5,4.0,71,0.00,,,0.06,WUHU216HW,2013-05-20 18:38:00,
2013-05-20 14:39:00,72.5,63.0,30.04,SW,225,1.8,4.0,72,0.00,,,0.06,WUHU216HW,2013-05-20 18:39:00,
2013-05-20 14:41:00,72.7,62.8,30.04,SSE,158,1.1,4.0,71,0.00,,,0.06,WUHU216HW,2013-05-20 18:41:00,
2013-05-20 14:42:00,72.7,62.8,30.04,WSW,248,4.9,5.4,71,0.00,,,0.06,WUHU216HW,2013-05-20 18:42:00,
2013-05-20 14:44:00,72.7,62.8,30.04,SSW,203,3.1,5.4,71,0.00,,,0.06,WUHU216HW,2013-05-20 18:44:00,
2013-05-20 14:46:00,72.7,62.8,30.04,SW,225,2.2,5.4,71,0.00,,,0.06,WUHU216HW,2013-05-20 18:46:00,
2013-05-20 14:47:00,72.7,62.8,30.04,SW,225,2.2,5.4,71,0.00,,,0.06,WUHU216HW,2013-05-20 18:47:00,
2013-05-20 14:49:00,72.4,62.1,30.04,SSE,158,5.8,5.8,70,0.00,,,0.06,WUHU216HW,2013-05-20 18:49:00,
2013-05-20 14:50:00,72.4,62.1,30.04,SSE,158,5.8,5.8,70,0.00,,,0.06,WUHU216HW,2013-05-20 18:50:00,
2013-05-20 14:51:00,72.4,62.1,30.04,SSE,158,5.8,5.8,70,0.00,,,0.06,WUHU216HW,2013-05-20 18:51:00,
2013-05-20 14:52:00,72.4,62.1,30.05,SSE,158,5.8,5.8,70,0.00,,,0.06,WUHU216HW,2013-05-20 18:52:00,
2013-05-20 14:54:00,72.0,62.1,30.04,WSW,248,6.3,6.3,71,0.00,,,0.06,WUHU216HW,2013-05-20 18:54:00,
2013-05-20 14:55:00,72.0,62.1,30.04,WSW,248,6.3,6.3,71,0.00,,,0.06,WUHU216HW,2013-05-20 18:55:00,
2013-05-20 14:56:00,72.0,62.1,30.04,WSW,248,6.3,6.3,71,0.00,,,0.06,WUHU216HW,2013-05-20 18:56:00,
2013-05-20 14:57:00,72.0,62.1,30.04,WSW,248,6.3,6.3,71,0.00,,,0.06,WUHU216HW,2013-05-20 18:57:00,
2013-05-20 15:00:00,71.8,61.6,30.05,WSW,248,1.6,6.3,70,0.00,,,0.06,WUHU216HW,2013-05-20 19:00:00,
2013-05-20 15:01:00,71.8,61.6,30.04,SSW,203,0.9,6.3,70,0.00,,,0.06,WUHU216HW,2013-05-20 19:01:00,
2013-05-20 15:02:00,72.0,61.7,30.05,SSW,203,1.1,6.3,70,0.00,,,0.06,WUHU216HW,2013-05-20 19:02:00,
2013-05-20 15:05:00,72.0,62.5,30.05,SE,135,2.9,6.3,72,0.00,,,0.06,WUHU216HW,2013-05-20 19:05:00,
2013-05-20 15:06:00,72.0,62.5,30.05,SE,135,2.9,6.3,72,0.00,,,0.06,WUHU216HW,2013-05-20 19:06:00,
2013-05-20 15:08:00,72.0,62.1,30.05,WNW,293,3.4,4.0,71,0.00,,,0.06,WUHU216HW,2013-05-20 19:08:00,
2013-05-20 15:10:00,72.0,62.1,30.05,WNW,293,0.2,4.0,71,0.00,,,0.06,WUHU216HW,2013-05-20 19:10:00,
2013-05-20 15:11:00,72.0,62.1,30.05,WNW,293,0.2,3.4,71,0.00,,,0.06,WUHU216HW,2013-05-20 19:11:00,
2013-05-20 15:12:00,72.0,62.1,30.05,WNW,293,0.2,3.4,71,0.00,,,0.06,WUHU216HW,2013-05-20 19:12:00,
2013-05-20 15:13:00,72.0,62.1,30.05,WNW,293,0.2,3.4,71,0.00,,,0.06,WUHU216HW,2013-05-20 19:13:00,
2013-05-20 15:16:00,72.4,62.8,30.05,SSE,158,1.1,3.4,72,0.00,,,0.06,WUHU216HW,2013-05-20 19:16:00,
2013-05-20 15:17:00,72.4,62.8,30.05,SSE,158,1.1,3.4,72,0.00,,,0.06,WUHU216HW,2013-05-20 19:17:00,
2013-05-20 15:18:00,72.5,62.6,30.05,NNW,338,4.3,4.3,71,0.00,,,0.06,WUHU216HW,2013-05-20 19:18:00,
2013-05-20 15:21:00,72.5,62.6,30.05,South,180,3.6,4.3,71,0.00,,,0.06,WUHU216HW,2013-05-20 19:21:00,
2013-05-20 15:22:00,72.7,62.8,30.05,SSW,203,0.4,4.3,71,0.00,,,0.06,WUHU216HW,2013-05-20 19:22:00,
2013-05-20 15:23:00,72.7,62.8,30.04,SSW,203,0.4,4.3,71,0.00,,,0.06,WUHU216HW,2013-05-20 19:23:00,
2013-05-20 15:26:00,72.5,62.6,30.04,SSW,203,2.9,5.1,71,0.00,,,0.06,WUHU216HW,2013-05-20 19:26:00,
2013-05-20 15:27:00,72.5,62.6,30.04,SSW,203,2.9,5.1,71,0.00,,,0.06,WUHU216HW,2013-05-20 19:27:00,
2013-05-20 15:28:00,72.5,62.6,30.04,SSW,203,2.9,5.1,71,0.00,,,0.06,WUHU216HW,2013-05-20 19:28:00,
2013-05-20 15:32:00,72.5,62.6,30.04,WSW,248,1.3,5.1,71,0.00,,,0.06,WUHU216HW,2013-05-20 19:32:00,
2013-05-20 15:33:00,72.7,62.8,30.04,SSW,203,2.2,5.6,71,0.00,,,0.06,WUHU216HW,2013-05-20 19:33:00,
2013-05-20 15:37:00,72.7,62.8,30.04,SSW,203,2.2,5.6,71,0.00,,,0.06,WUHU216HW,2013-05-20 19:37:00,
2013-05-20 15:38:00,72.7,62.8,30.04,West,270,2.9,5.6,71,0.00,,,0.06,WUHU216HW,2013-05-20 19:38:00,
2013-05-20 15:43:00,72.5,62.6,30.04,South,180,2.9,5.6,71,0.00,,,0.06,WUHU216HW,2013-05-20 19:43:00,
2013-05-20 15:44:00,72.5,62.6,30.04,South,180,2.9,2.9,71,0.00,,,0.06,WUHU216HW,2013-05-20 19:44:00,
2013-05-20 15:48:00,72.5,62.6,30.04,SW,225,1.3,3.1,71,0.00,,,0.06,WUHU216HW,2013-05-20 19:48:00,
2013-05-20 15:49:00,72.5,62.6,30.04,SW,225,1.3,3.1,71,0.00,,,0.06,WUHU216HW,2013-05-20 19:49:00,
2013-05-20 15:53:00,72.5,62.6,30.04,South,180,2.7,3.1,71,0.00,,,0.06,WUHU216HW,2013-05-20 19:53:00,
2013-05-20 15:54:00,72.5,62.6,30.03,South,180,2.7,3.1,71,0.00,,,0.06,WUHU216HW,2013-05-20 19:54:00,
2013-05-20 15:55:00,72.4,62.5,30.03,SSW,203,4.7,4.7,71,0.00,,,0.06,WUHU216HW,2013-05-20 19:55:00,
2013-05-20 15:58:00,72.4,62.5,30.03,SSE,158,1.1,4.7,71,0.00,,,0.06,WUHU216HW,2013-05-20 19:58:00,
2013-05-20 15:59:00,72.4,62.5,30.03,SSE,158,1.1,4.7,71,0.00,,,0.06,WUHU216HW,2013-05-20 19:59:00,
2013-05-20 16:01:00,72.4,62.5,30.03,SSW,203,2.5,4.7,71,0.00,,,0.06,WUHU216HW,2013-05-20 20:01:00,
2013-05-20 16:03:00,72.4,62.5,30.03,SSW,203,2.5,4.7,71,0.00,,,0.06,WUHU216HW,2013-05-20 20:03:00,
2013-05-20 16:04:00,72.4,62.5,30.03,SSW,203,2.5,4.7,71,0.00,,,0.06,WUHU216HW,2013-05-20 20:04:00,
2013-05-20 16:06:00,72.2,62.3,30.02,WSW,248,5.4,5.4,71,0.00,,,0.06,WUHU216HW,2013-05-20 20:06:00,
2013-05-20 16:09:00,72.2,62.3,30.02,WSW,248,5.4,5.4,71,0.00,,,0.06,WUHU216HW,2013-05-20 20:09:00,
2013-05-20 16:11:00,71.5,61.6,30.02,SSW,203,4.0,6.0,71,0.00,,,0.06,WUHU216HW,2013-05-20 20:11:00,
2013-05-20 16:14:00,71.3,61.4,30.02,NW,315,5.6,6.0,71,0.00,,,0.06,WUHU216HW,2013-05-20 20:14:00,
2013-05-20 16:15:00,71.3,61.4,30.02,NW,315,5.6,6.0,71,0.00,,,0.06,WUHU216HW,2013-05-20 20:15:00,
2013-05-20 16:16:00,71.1,61.6,30.02,SW,225,3.6,6.0,72,0.00,,,0.06,WUHU216HW,2013-05-20 20:16:00,
2013-05-20 16:19:00,71.1,61.6,30.02,NW,315,3.4,6.0,72,0.00,,,0.06,WUHU216HW,2013-05-20 20:19:00,
2013-05-20 16:20:00,71.1,61.6,30.02,NW,315,3.4,6.0,72,0.00,,,0.06,WUHU216HW,2013-05-20 20:20:00,
2013-05-20 16:21:00,71.1,61.6,30.02,NW,315,3.4,5.6,72,0.00,,,0.06,WUHU216HW,2013-05-20 20:21:00,
2013-05-20 16:24:00,71.3,61.7,30.02,SW,225,3.6,5.6,72,0.00,,,0.06,WUHU216HW,2013-05-20 20:24:00,
2013-05-20 16:25:00,71.3,61.7,30.02,SW,225,3.6,4.0,72,0.00,,,0.06,WUHU216HW,2013-05-20 20:25:00,
2013-05-20 16:26:00,71.3,61.7,30.02,SW,225,3.6,3.6,72,0.00,,,0.06,WUHU216HW,2013-05-20 20:26:00,
2013-05-20 16:29:00,70.9,61.8,30.02,SSW,203,0.4,3.6,73,0.00,,,0.06,WUHU216HW,2013-05-20 20:29:00,
2013-05-20 16:30:00,70.9,61.8,30.02,SSW,203,0.4,3.6,73,0.00,,,0.06,WUHU216HW,2013-05-20 20:30:00,
2013-05-20 16:31:00,70.9,61.8,30.02,SSW,203,0.4,3.6,73,0.00,,,0.06,WUHU216HW,2013-05-20 20:31:00,
2013-05-20 16:35:00,70.9,61.8,30.02,SE,135,2.9,4.0,73,0.00,,,0.06,WUHU216HW,2013-05-20 20:35:00,
2013-05-20 16:36:00,70.9,61.8,30.02,SSW,203,0.7,4.0,73,0.00,,,0.06,WUHU216HW,2013-05-20 20:36:00,
2013-05-20 16:37:00,70.9,61.8,30.02,SW,225,3.4,4.0,73,0.00,,,0.06,WUHU216HW,2013-05-20 20:37:00,
2013-05-20 16:40:00,70.9,61.8,30.02,SW,225,3.4,4.0,73,0.00,,,0.06,WUHU216HW,2013-05-20 20:40:00,
2013-05-20 16:41:00,70.9,61.8,30.02,SW,225,4.3,4.3,73,0.00,,,0.06,WUHU216HW,2013-05-20 20:41:00,
2013-05-20 16:42:00,70.9,61.8,30.02,SW,225,4.3,4.3,73,0.00,,,0.06,WUHU216HW,2013-05-20 20:42:00,
2013-05-20 16:45:00,70.9,61.4,30.01,SSW,203,5.1,5.1,72,0.00,,,0.06,WUHU216HW,2013-05-20 20:45:00,
2013-05-20 16:46:00,70.9,61.4,30.01,SSW,203,5.1,5.1,72,0.00,,,0.06,WUHU216HW,2013-05-20 20:46:00,
2013-05-20 16:47:00,70.6,61.5,30.01,WSW,248,1.8,5.4,73,0.00,,,0.06,WUHU216HW,2013-05-20 20:47:00,
2013-05-20 16:51:00,70.6,61.5,30.01,South,180,3.6,5.4,73,0.00,,,0.06,WUHU216HW,2013-05-20 20:51:00,
2013-05-20 16:52:00,70.6,61.5,30.01,South,180,3.6,5.4,73,0.00,,,0.06,WUHU216HW,2013-05-20 20:52:00,
2013-05-20 16:56:00,70.7,61.7,30.01,WSW,248,3.4,5.4,73,0.00,,,0.06,WUHU216HW,2013-05-20 20:56:00,
2013-05-20 16:57:00,70.7,61.7,30.01,WSW,248,3.4,3.6,73,0.00,,,0.06,WUHU216HW,2013-05-20 20:57:00,
2013-05-20 16:58:00,70.7,61.7,30.01,WSW,248,3.4,3.6,73,0.00,,,0.06,WUHU216HW,2013-05-20 20:58:00,
2013-05-20 17:01:00,70.4,61.7,30.01,NNW,338,3.4,4.0,74,0.00,,,0.06,WUHU216HW,2013-05-20 21:01:00,
2013-05-20 17:02:00,70.4,61.7,30.01,NNW,338,3.4,4.0,74,0.00,,,0.06,WUHU216HW,2013-05-20 21:02:00,
2013-05-20 17:03:00,70.4,61.7,30.01,NNW,338,3.4,4.0,74,0.00,,,0.06,WUHU216HW,2013-05-20 21:03:00,
2013-05-20 17:04:00,70.4,61.7,30.01,NNW,338,3.4,4.0,74,0.00,,,0.06,WUHU216HW,2013-05-20 21:04:00,
2013-05-20 17:06:00,70.2,61.5,30.01,South,180,3.1,4.0,74,0.00,,,0.06,WUHU216HW,2013-05-20 21:06:00,
2013-05-20 17:07:00,70.2,61.5,30.01,South,180,3.1,4.0,74,0.00,,,0.06,WUHU216HW,2013-05-20 21:07:00,
2013-05-20 17:08:00,70.2,61.5,30.01,South,180,3.1,4.0,74,0.00,,,0.06,WUHU216HW,2013-05-20 21:08:00,
2013-05-20 17:09:00,70.0,61.3,30.01,WSW,248,1.1,4.0,74,0.00,,,0.06,WUHU216HW,2013-05-20 21:09:00,
2013-05-20 17:11:00,70.0,61.3,30.01,WSW,248,1.1,3.4,74,0.00,,,0.06,WUHU216HW,2013-05-20 21:11:00,
2013-05-20 17:12:00,70.0,61.3,30.01,WSW,248,1.1,3.4,74,0.00,,,0.06,WUHU216HW,2013-05-20 21:12:00,
2013-05-20 17:13:00,70.2,61.8,30.01,SSW,203,5.1,5.1,75,0.00,,,0.06,WUHU216HW,2013-05-20 21:13:00,
2013-05-20 17:14:00,70.2,61.8,30.01,SW,225,2.0,5.1,75,0.00,,,0.06,WUHU216HW,2013-05-20 21:14:00,
2013-05-20 17:16:00,70.2,61.8,30.01,SW,225,2.0,5.1,75,0.00,,,0.06,WUHU216HW,2013-05-20 21:16:00,
2013-05-20 17:18:00,70.2,61.8,30.01,WSW,248,3.4,5.1,75,0.00,,,0.06,WUHU216HW,2013-05-20 21:18:00,
2013-05-20 17:19:00,70.2,61.8,30.01,WSW,248,3.4,5.1,75,0.00,,,0.06,WUHU216HW,2013-05-20 21:19:00,
2013-05-20 17:22:00,70.0,61.7,30.01,West,270,2.9,5.1,75,0.00,,,0.06,WUHU216HW,2013-05-20 21:22:00,
2013-05-20 17:23:00,70.0,61.7,30.01,West,270,2.9,5.1,75,0.00,,,0.06,WUHU216HW,2013-05-20 21:23:00,
2013-05-20 17:24:00,70.2,61.8,30.01,WSW,248,4.9,4.9,75,0.00,,,0.06,WUHU216HW,2013-05-20 21:24:00,
2013-05-20 17:27:00,69.8,61.5,30.01,WSW,248,5.4,5.4,75,0.00,,,0.06,WUHU216HW,2013-05-20 21:27:00,
2013-05-20 17:28:00,69.8,61.5,30.01,SE,135,3.1,5.4,75,0.00,,,0.06,WUHU216HW,2013-05-20 21:28:00,
2013-05-20 17:29:00,69.8,61.5,30.01,SE,135,3.1,5.4,75,0.00,,,0.06,WUHU216HW,2013-05-20 21:29:00,
2013-05-20 17:32:00,69.5,61.1,30.01,SW,225,3.8,5.4,75,0.00,,,0.06,WUHU216HW,2013-05-20 21:32:00,
2013-05-20 17:33:00,69.5,61.1,30.01,SW,225,3.8,5.4,75,0.00,,,0.06,WUHU216HW,2013-05-20 21:33:00,
2013-05-20 17:34:00,69.5,61.1,30.01,SW,225,3.8,5.4,75,0.00,,,0.06,WUHU216HW,2013-05-20 21:34:00,
2013-05-20 17:38:00,69.3,61.4,30.00,WSW,248,0.9,3.8,76,0.00,,,0.06,WUHU216HW,2013-05-20 21:38:00,
2013-05-20 17:39:00,69.3,61.4,30.00,WSW,248,0.9,3.8,76,0.00,,,0.06,WUHU216HW,2013-05-20 21:39:00,
2013-05-20 17:40:00,69.3,61.4,30.00,WSW,248,0.9,3.8,76,0.00,,,0.06,WUHU216HW,2013-05-20 21:40:00,
2013-05-20 17:43:00,69.1,61.6,30.00,SSW,203,3.1,3.8,77,0.00,,,0.06,WUHU216HW,2013-05-20 21:43:00,
2013-05-20 17:44:00,69.1,61.6,30.00,SSW,203,3.1,3.8,77,0.00,,,0.06,WUHU216HW,2013-05-20 21:44:00,
2013-05-20 17:45:00,68.8,61.3,30.01,SSW,203,5.8,5.8,77,0.00,,,0.06,WUHU216HW,2013-05-20 21:45:00,
2013-05-20 17:48:00,68.8,61.3,30.01,SSW,203,5.8,5.8,77,0.00,,,0.06,WUHU216HW,2013-05-20 21:48:00,
2013-05-20 17:49:00,68.8,61.3,30.01,SSW,203,5.8,5.8,77,0.00,,,0.06,WUHU216HW,2013-05-20 21:49:00,
2013-05-20 17:51:00,68.6,61.5,30.00,SW,225,0.4,5.8,78,0.00,,,0.06,WUHU216HW,2013-05-20 21:51:00,
2013-05-20 17:53:00,68.4,61.7,30.01,SSW,203,4.0,5.8,79,0.00,,,0.06,WUHU216HW,2013-05-20 21:53:00,
2013-05-20 17:54:00,68.4,61.7,30.01,SSW,203,4.0,5.8,79,0.00,,,0.06,WUHU216HW,2013-05-20 21:54:00,
2013-05-20 17:56:00,68.4,61.7,30.01,SSW,203,4.3,5.8,79,0.00,,,0.06,WUHU216HW,2013-05-20 21:56:00,
2013-05-20 17:59:00,68.4,61.7,30.01,SSW,203,4.3,5.8,79,0.00,,,0.06,WUHU216HW,2013-05-20 21:59:00,
2013-05-20 18:01:00,68.2,61.6,30.01,SSE,158,2.0,4.3,79,0.00,,,0.06,WUHU216HW,2013-05-20 22:01:00,
2013-05-20 18:04:00,68.2,61.6,30.01,SSE,158,2.0,4.3,79,0.00,,,0.06,WUHU216HW,2013-05-20 22:04:00,
2013-05-20 18:05:00,68.2,61.6,30.00,SSE,158,2.0,4.3,79,0.00,,,0.06,WUHU216HW,2013-05-20 22:05:00,
2013-05-20 18:06:00,68.0,61.4,30.01,SW,225,2.5,4.3,79,0.00,,,0.06,WUHU216HW,2013-05-20 22:06:00,
2013-05-20 18:09:00,67.9,61.2,30.00,SSE,158,3.1,4.3,79,0.00,,,0.06,WUHU216HW,2013-05-20 22:09:00,
2013-05-20 18:10:00,67.9,61.2,30.00,SW,225,5.4,5.4,79,0.00,,,0.06,WUHU216HW,2013-05-20 22:10:00,
2013-05-20 18:11:00,67.7,61.4,30.00,WSW,248,3.8,5.4,80,0.00,,,0.06,WUHU216HW,2013-05-20 22:11:00,
2013-05-20 18:14:00,67.7,61.4,30.01,SSW,203,4.3,5.4,80,0.00,,,0.06,WUHU216HW,2013-05-20 22:14:00,
2013-05-20 18:15:00,67.7,61.4,30.01,SSW,203,4.3,5.4,80,0.00,,,0.06,WUHU216HW,2013-05-20 22:15:00,
2013-05-20 18:16:00,67.5,61.2,30.01,SW,225,2.7,5.4,80,0.00,,,0.06,WUHU216HW,2013-05-20 22:16:00,
2013-05-20 18:19:00,67.3,61.0,30.01,SW,225,5.1,5.4,80,0.00,,,0.06,WUHU216HW,2013-05-20 22:19:00,
2013-05-20 18:20:00,67.3,61.0,30.01,SW,225,5.1,5.1,80,0.00,,,0.06,WUHU216HW,2013-05-20 22:20:00,
2013-05-20 18:22:00,67.1,60.8,30.01,WSW,248,2.5,5.1,80,0.00,,,0.06,WUHU216HW,2013-05-20 22:22:00,
2013-05-20 18:25:00,67.1,60.8,30.01,WSW,248,2.5,5.1,80,0.00,,,0.06,WUHU216HW,2013-05-20 22:25:00,
2013-05-20 18:26:00,67.1,60.8,30.01,SSW,203,1.3,5.1,80,0.00,,,0.06,WUHU216HW,2013-05-20 22:26:00,
2013-05-20 18:27:00,67.0,60.7,30.01,SW,225,1.1,5.1,80,0.00,,,0.06,WUHU216HW,2013-05-20 22:27:00,
2013-05-20 18:30:00,67.0,60.7,30.01,WSW,248,4.0,5.1,80,0.00,,,0.06,WUHU216HW,2013-05-20 22:30:00,
2013-05-20 18:32:00,67.0,60.7,30.01,WSW,248,4.0,4.0,80,0.00,,,0.06,WUHU216HW,2013-05-20 22:32:00,
2013-05-20 18:33:00,67.0,60.7,30.01,WSW,248,4.0,4.0,80,0.00,,,0.06,WUHU216HW,2013-05-20 22:33:00,
2013-05-20 18:35:00,67.0,60.7,30.01,ESE,113,1.8,4.0,80,0.00,,,0.06,WUHU216HW,2013-05-20 22:35:00,
2013-05-20 18:36:00,67.0,60.7,30.01,ESE,113,1.8,4.0,80,0.00,,,0.06,WUHU216HW,2013-05-20 22:36:00,
2013-05-20 18:37:00,67.0,60.7,30.01,ESE,113,1.8,4.0,80,0.00,,,0.06,WUHU216HW,2013-05-20 22:37:00,
2013-05-20 18:38:00,67.0,60.7,30.01,ESE,113,1.8,4.0,80,0.00,,,0.06,WUHU216HW,2013-05-20 22:38:00,
2013-05-20 18:40:00,66.8,60.5,30.01,SSE,158,1.6,4.0,80,0.00,,,0.06,WUHU216HW,2013-05-20 22:40:00,
2013-05-20 18:41:00,66.8,60.5,30.01,SSE,158,1.6,4.0,80,0.00,,,0.06,WUHU216HW,2013-05-20 22:41:00,
2013-05-20 18:42:00,66.8,60.5,30.01,SSE,158,1.6,4.0,80,0.00,,,0.06,WUHU216HW,2013-05-20 22:42:00,
2013-05-20 18:43:00,66.8,60.5,30.01,SSE,158,1.6,4.0,80,0.00,,,0.06,WUHU216HW,2013-05-20 22:43:00,
2013-05-20 18:45:00,67.0,60.7,30.01,WSW,248,0.0,1.8,80,0.00,,,0.06,WUHU216HW,2013-05-20 22:45:00,
2013-05-20 18:46:00,67.0,60.7,30.01,WSW,248,0.0,1.8,80,0.00,,,0.06,WUHU216HW,2013-05-20 22:46:00,
2013-05-20 18:47:00,67.0,60.7,30.01,WSW,248,0.0,1.8,80,0.00,,,0.06,WUHU216HW,2013-05-20 22:47:00,
2013-05-20 18:48:00,67.0,60.7,30.00,WSW,248,0.0,1.8,80,0.00,,,0.06,WUHU216HW,2013-05-20 22:48:00,
2013-05-20 18:51:00,67.3,61.7,30.00,West,270,0.2,1.8,82,0.00,,,0.06,WUHU216HW,2013-05-20 22:51:00,
2013-05-20 18:52:00,67.3,61.7,30.00,West,270,0.2,1.8,82,0.00,,,0.06,WUHU216HW,2013-05-20 22:52:00,
2013-05-20 18:53:00,67.3,61.7,30.00,West,270,0.2,1.8,82,0.00,,,0.06,WUHU216HW,2013-05-20 22:53:00,
2013-05-20 18:56:00,67.3,61.0,30.01,SSW,203,0.9,1.8,80,0.00,,,0.06,WUHU216HW,2013-05-20 22:56:00,
2013-05-20 18:57:00,67.3,61.0,30.00,SE,135,2.5,2.5,80,0.00,,,0.06,WUHU216HW,2013-05-20 22:57:00,
2013-05-20 18:58:00,67.3,61.0,30.00,SE,135,2.5,2.5,80,0.00,,,0.06,WUHU216HW,2013-05-20 22:58:00,
2013-05-20 19:01:00,67.3,61.0,30.01,South,180,2.5,2.5,80,0.00,,,0.06,WUHU216HW,2013-05-20 23:01:00,
2013-05-20 19:02:00,67.1,60.8,30.01,SSW,203,0.9,2.5,80,0.00,,,0.06,WUHU216HW,2013-05-20 23:02:00,
2013-05-20 19:03:00,67.1,60.8,30.01,SW,225,0.4,2.5,80,0.00,,,0.06,WUHU216HW,2013-05-20 23:03:00,
2013-05-20 19:06:00,67.0,60.7,30.01,SSW,203,0.4,2.5,80,0.00,,,0.06,WUHU216HW,2013-05-20 23:06:00,
2013-05-20 19:07:00,67.0,60.7,30.01,SSW,203,0.4,2.5,80,0.00,,,0.06,WUHU216HW,2013-05-20 23:07:00,
2013-05-20 19:08:00,67.0,60.7,30.01,SSW,203,0.4,2.5,80,0.00,,,0.06,WUHU216HW,2013-05-20 23:08:00,
2013-05-20 19:11:00,67.0,60.7,30.01,NW,315,1.8,1.8,80,0.00,,,0.06,WUHU216HW,2013-05-20 23:11:00,
2013-05-20 19:12:00,67.0,60.7,30.01,South,180,1.8,2.2,80,0.00,,,0.06,WUHU216HW,2013-05-20 23:12:00,
2013-05-20 19:13:00,66.8,60.5,30.01,SSE,158,0.4,2.2,80,0.00,,,0.06,WUHU216HW,2013-05-20 23:13:00,
2013-05-20 19:16:00,66.8,60.5,30.01,SW,225,1.1,2.2,80,0.00,,,0.06,WUHU216HW,2013-05-20 23:16:00,
2013-05-20 19:17:00,66.8,60.5,30.01,SW,225,1.1,2.2,80,0.00,,,0.06,WUHU216HW,2013-05-20 23:17:00,
2013-05-20 19:18:00,66.8,60.5,30.01,SW,225,1.1,2.2,80,0.00,,,0.06,WUHU216HW,2013-05-20 23:18:00,
2013-05-20 19:19:00,66.6,60.3,30.01,WSW,248,0.4,2.2,80,0.00,,,0.06,WUHU216HW,2013-05-20 23:19:00,
2013-05-20 19:21:00,66.4,60.1,30.01,SW,225,2.5,2.5,80,0.00,,,0.06,WUHU216HW,2013-05-20 23:21:00,
2013-05-20 19:22:00,66.4,60.1,30.01,SW,225,1.3,2.5,80,0.00,,,0.06,WUHU216HW,2013-05-20 23:22:00,
2013-05-20 19:23:00,66.4,60.1,30.01,West,270,0.0,2.5,80,0.00,,,0.06,WUHU216HW,2013-05-20 23:23:00,
2013-05-20 19:24:00,66.2,59.9,30.01,SSW,203,0.9,2.5,80,0.00,,,0.06,WUHU216HW,2013-05-20 23:24:00,
2013-05-20 19:26:00,66.2,60.3,30.01,SSW,203,0.4,2.5,81,0.00,,,0.06,WUHU216HW,2013-05-20 23:26:00,
2013-05-20 19:27:00,66.2,60.3,30.01,South,180,1.6,2.5,81,0.00,,,0.06,WUHU216HW,2013-05-20 23:27:00,
2013-05-20 19:28:00,66.2,60.3,30.01,SW,225,0.0,2.5,81,0.00,,,0.06,WUHU216HW,2013-05-20 23:28:00,
2013-05-20 19:29:00,66.2,60.3,30.01,SSW,203,2.2,2.5,81,0.00,,,0.06,WUHU216HW,2013-05-20 23:29:00,
2013-05-20 19:31:00,66.2,60.3,30.01,SSW,203,1.1,2.5,81,0.00,,,0.06,WUHU216HW,2013-05-20 23:31:00,
2013-05-20 19:33:00,66.2,60.6,30.01,SW,225,1.8,2.5,82,0.00,,,0.06,WUHU216HW,2013-05-20 23:33:00,
2013-05-20 19:34:00,66.2,60.6,30.01,SW,225,4.3,4.3,82,0.00,,,0.06,WUHU216HW,2013-05-20 23:34:00,
2013-05-20 19:36:00,66.2,60.6,30.01,SW,225,4.3,4.3,82,0.00,,,0.06,WUHU216HW,2013-05-20 23:36:00,
2013-05-20 19:38:00,66.4,60.8,30.01,South,180,0.4,4.3,82,0.00,,,0.06,WUHU216HW,2013-05-20 23:38:00,
2013-05-20 19:39:00,66.4,60.8,30.01,SW,225,0.9,4.3,82,0.00,,,0.06,WUHU216HW,2013-05-20 23:39:00,
2013-05-20 19:42:00,66.4,60.8,30.01,SSW,203,0.4,4.3,82,0.00,,,0.06,WUHU216HW,2013-05-20 23:42:00,
2013-05-20 19:43:00,66.4,60.8,30.01,South,180,1.3,4.3,82,0.00,,,0.06,WUHU216HW,2013-05-20 23:43:00,
2013-05-20 19:44:00,66.4,60.8,30.01,WSW,248,1.6,4.3,82,0.00,,,0.06,WUHU216HW,2013-05-20 23:44:00,
2013-05-20 19:47:00,66.4,60.8,30.01,SW,225,1.8,2.9,82,0.00,,,0.06,WUHU216HW,2013-05-20 23:47:00,
2013-05-20 19:48:00,66.4,60.8,30.01,SW,225,1.8,1.8,82,0.00,,,0.06,WUHU216HW,2013-05-20 23:48:00,
2013-05-20 19:49:00,66.1,60.4,30.01,SE,135,0.4,1.8,82,0.00,,,0.06,WUHU216HW,2013-05-20 23:49:00,
2013-05-20 19:50:00,65.9,60.2,30.01,SSW,203,0.0,1.8,82,0.00,,,0.06,WUHU216HW,2013-05-20 23:50:00,
2013-05-20 19:52:00,65.9,60.2,30.01,SSW,203,0.7,1.8,82,0.00,,,0.06,WUHU216HW,2013-05-20 23:52:00,
2013-05-20 19:53:00,65.9,60.2,30.01,SSW,203,0.7,1.8,82,0.00,,,0.06,WUHU216HW,2013-05-20 23:53:00,
2013-05-20 19:54:00,65.9,60.2,30.00,SSW,203,0.7,1.8,82,0.00,,,0.06,WUHU216HW,2013-05-20 23:54:00,
2013-05-20 19:55:00,65.5,59.6,30.00,SW,225,0.9,1.8,81,0.00,,,0.06,WUHU216HW,2013-05-20 23:55:00,
2013-05-20 19:58:00,65.2,59.5,30.00,South,180,0.7,1.8,82,0.00,,,0.06,WUHU216HW,2013-05-20 23:58:00,
2013-05-20 19:59:00,65.2,59.5,30.00,SSW,203,0.0,1.3,82,0.00,,,0.06,WUHU216HW,2013-05-20 23:59:00,
2013-05-20 20:00:00,65.0,59.3,30.00,SW,225,0.4,1.1,82,0.00,,,0.06,WUHU216HW,2013-05-21 00:00:00,
2013-05-20 20:01:00,65.0,59.3,30.00,SW,225,0.9,1.1,82,0.00,,,0.06,WUHU216HW,2013-05-21 00:01:00,
2013-05-20 20:03:00,65.0,59.3,30.00,SSW,203,0.0,1.1,82,0.00,,,0.06,WUHU216HW,2013-05-21 00:03:00,
2013-05-20 20:04:00,65.0,59.3,30.00,SSW,203,0.2,1.1,82,0.00,,,0.06,WUHU216HW,2013-05-21 00:04:00,
2013-05-20 20:05:00,65.0,59.3,30.00,WSW,248,0.4,1.1,82,0.00,,,0.06,WUHU216HW,2013-05-21 00:05:00,
2013-05-20 20:06:00,65.0,59.3,30.00,South,180,0.0,1.1,82,0.00,,,0.06,WUHU216HW,2013-05-21 00:06:00,
2013-05-20 20:08:00,64.8,59.2,30.00,SSW,203,0.0,0.9,82,0.00,,,0.06,WUHU216HW,2013-05-21 00:08:00,
2013-05-20 20:09:00,64.8,59.2,30.00,SSW,203,0.0,0.9,82,0.00,,,0.06,WUHU216HW,2013-05-21 00:09:00,
2013-05-20 20:10:00,64.8,59.2,30.01,SSW,203,0.0,0.9,82,0.00,,,0.06,WUHU216HW,2013-05-21 00:10:00,
2013-05-20 20:11:00,64.8,59.2,30.01,SSW,203,0.0,0.9,82,0.00,,,0.06,WUHU216HW,2013-05-21 00:11:00,
2013-05-20 20:13:00,64.6,59.1,30.01,South,180,0.9,2.0,82,0.00,,,0.06,WUHU216HW,2013-05-21 00:13:00,
2013-05-20 20:14:00,64.4,58.9,30.01,SSW,203,0.4,2.0,82,0.00,,,0.06,WUHU216HW,2013-05-21 00:14:00,
2013-05-20 20:15:00,64.4,58.9,30.00,WSW,248,1.1,2.0,82,0.00,,,0.06,WUHU216HW,2013-05-21 00:15:00,
2013-05-20 20:16:00,64.4,58.9,30.01,WSW,248,1.1,2.0,82,0.00,,,0.06,WUHU216HW,2013-05-21 00:16:00,
2013-05-20 20:18:00,64.4,58.9,30.01,WSW,248,1.1,2.0,82,0.00,,,0.06,WUHU216HW,2013-05-21 00:18:00,
2013-05-20 20:19:00,64.1,58.5,30.01,SW,225,1.8,2.0,82,0.00,,,0.06,WUHU216HW,2013-05-21 00:19:00,
2013-05-20 20:20:00,64.1,58.5,30.01,SW,225,1.8,2.0,82,0.00,,,0.06,WUHU216HW,2013-05-21 00:20:00,
2013-05-20 20:22:00,64.1,58.5,30.01,WSW,248,1.1,2.0,82,0.00,,,0.06,WUHU216HW,2013-05-21 00:22:00,
2013-05-20 20:24:00,64.1,58.5,30.01,WSW,248,1.1,1.8,82,0.00,,,0.06,WUHU216HW,2013-05-21 00:24:00,
2013-05-20 20:25:00,64.1,58.5,30.01,WSW,248,1.1,1.8,82,0.00,,,0.06,WUHU216HW,2013-05-21 00:25:00,
2013-05-20 20:27:00,63.9,58.6,30.01,WSW,248,2.5,2.5,83,0.00,,,0.06,WUHU216HW,2013-05-21 00:27:00,
2013-05-20 20:29:00,63.9,58.6,30.01,SSW,203,4.0,4.0,83,0.00,,,0.06,WUHU216HW,2013-05-21 00:29:00,
2013-05-20 20:30:00,63.9,58.6,30.01,SSW,203,4.0,4.0,83,0.00,,,0.06,WUHU216HW,2013-05-21 00:30:00,
2013-05-20 20:32:00,64.1,59.1,30.01,SE,135,1.8,4.7,84,0.00,,,0.06,WUHU216HW,2013-05-21 00:32:00,
2013-05-20 20:34:00,64.3,59.7,30.01,SW,225,3.6,4.7,85,0.00,,,0.06,WUHU216HW,2013-05-21 00:34:00,
2013-05-20 20:35:00,64.3,59.7,30.01,SW,225,3.6,4.7,85,0.00,,,0.06,WUHU216HW,2013-05-21 00:35:00,
2013-05-20 20:36:00,64.6,60.0,30.01,SW,225,0.7,4.7,85,0.00,,,0.06,WUHU216HW,2013-05-21 00:36:00,
2013-05-20 20:37:00,64.8,60.2,30.01,South,180,0.4,4.7,85,0.00,,,0.06,WUHU216HW,2013-05-21 00:37:00,
2013-05-20 20:39:00,64.8,60.6,30.01,SSW,203,0.7,4.7,86,0.00,,,0.06,WUHU216HW,2013-05-21 00:39:00,
2013-05-20 20:40:00,64.8,60.2,30.01,SW,225,0.7,4.7,85,0.00,,,0.06,WUHU216HW,2013-05-21 00:40:00,
2013-05-20 20:41:00,64.8,60.2,30.01,SSE,158,0.7,4.7,85,0.00,,,0.06,WUHU216HW,2013-05-21 00:41:00,
2013-05-20 20:42:00,64.6,59.7,30.01,SSW,203,3.8,4.0,84,0.00,,,0.06,WUHU216HW,2013-05-21 00:42:00,
2013-05-20 20:44:00,64.6,59.3,30.01,SW,225,3.4,3.8,83,0.00,,,0.06,WUHU216HW,2013-05-21 00:44:00,
2013-05-20 20:45:00,64.4,59.1,30.01,SW,225,1.1,3.8,83,0.00,,,0.06,WUHU216HW,2013-05-21 00:45:00,
2013-05-20 20:46:00,64.3,59.0,30.01,SW,225,0.4,3.8,83,0.00,,,0.06,WUHU216HW,2013-05-21 00:46:00,
2013-05-20 20:47:00,64.3,59.0,30.01,SSE,158,0.9,3.8,83,0.00,,,0.06,WUHU216HW,2013-05-21 00:47:00,
2013-05-20 20:48:00,64.1,58.8,30.01,ESE,113,0.2,3.8,83,0.00,,,0.06,WUHU216HW,2013-05-21 00:48:00,
2013-05-20 20:49:00,63.9,58.6,30.01,West,270,0.2,3.8,83,0.00,,,0.06,WUHU216HW,2013-05-21 00:49:00,
2013-05-20 20:50:00,63.9,58.6,30.01,West,270,1.3,3.8,83,0.00,,,0.06,WUHU216HW,2013-05-21 00:50:00,
2013-05-20 20:51:00,63.7,58.4,30.01,SSW,203,0.4,3.8,83,0.00,,,0.06,WUHU216HW,2013-05-21 00:51:00,
2013-05-20 20:52:00,63.7,58.4,30.01,SSW,203,0.4,3.8,83,0.00,,,0.06,WUHU216HW,2013-05-21 00:52:00,
2013-05-20 20:53:00,63.7,58.4,30.01,SSW,203,0.4,3.4,83,0.00,,,0.06,WUHU216HW,2013-05-21 00:53:00,
2013-05-20 20:55:00,63.7,58.4,30.01,SSW,203,0.4,1.3,83,0.00,,,0.06,WUHU216HW,2013-05-21 00:55:00,
2013-05-20 20:56:00,63.5,58.2,30.01,WSW,248,1.6,1.6,83,0.00,,,0.06,WUHU216HW,2013-05-21 00:56:00,
2013-05-20 20:57:00,63.5,58.2,30.01,WSW,248,1.6,1.6,83,0.00,,,0.06,WUHU216HW,2013-05-21 00:57:00,
2013-05-20 20:58:00,63.5,58.2,30.01,WSW,248,1.6,1.6,83,0.00,,,0.06,WUHU216HW,2013-05-21 00:58:00,
2013-05-20 21:00:00,63.5,58.2,30.01,WSW,248,1.6,1.6,83,0.00,,,0.06,WUHU216HW,2013-05-21 01:00:00,
2013-05-20 21:02:00,63.2,57.9,30.01,SW,225,0.2,1.6,83,0.00,,,0.06,WUHU216HW,2013-05-21 01:02:00,
2013-05-20 21:03:00,63.2,57.9,30.01,SSE,158,1.8,1.8,83,0.00,,,0.06,WUHU216HW,2013-05-21 01:03:00,
2013-05-20 21:05:00,63.2,58.2,30.01,SW,225,2.5,2.5,84,0.00,,,0.06,WUHU216HW,2013-05-21 01:05:00,
2013-05-20 21:07:00,63.0,58.1,30.01,SSW,203,2.5,2.5,84,0.00,,,0.06,WUHU216HW,2013-05-21 01:07:00,
2013-05-20 21:08:00,63.0,58.1,30.01,West,270,0.4,2.5,84,0.00,,,0.06,WUHU216HW,2013-05-21 01:08:00,
2013-05-20 21:10:00,62.8,57.9,30.01,South,180,4.3,4.3,84,0.00,,,0.06,WUHU216HW,2013-05-21 01:10:00,
2013-05-20 21:12:00,62.6,57.7,30.01,SW,225,2.2,4.3,84,0.00,,,0.06,WUHU216HW,2013-05-21 01:12:00,
2013-05-20 21:13:00,62.6,57.7,30.01,SW,225,3.8,4.3,84,0.00,,,0.06,WUHU216HW,2013-05-21 01:13:00,
2013-05-20 21:15:00,62.3,57.7,30.01,WSW,248,0.9,4.7,85,0.00,,,0.06,WUHU216HW,2013-05-21 01:15:00,
2013-05-20 21:18:00,62.3,57.7,30.01,West,270,4.5,4.7,85,0.00,,,0.06,WUHU216HW,2013-05-21 01:18:00,
2013-05-20 21:20:00,62.1,57.5,30.01,WSW,248,2.2,4.7,85,0.00,,,0.06,WUHU216HW,2013-05-21 01:20:00,
2013-05-20 21:21:00,62.1,57.9,30.01,SW,225,1.1,4.7,86,0.00,,,0.06,WUHU216HW,2013-05-21 01:21:00,
2013-05-20 21:23:00,62.1,57.9,30.01,SW,225,2.0,4.7,86,0.00,,,0.06,WUHU216HW,2013-05-21 01:23:00,
2013-05-20 21:24:00,62.1,57.9,30.01,SW,225,1.6,4.7,86,0.00,,,0.06,WUHU216HW,2013-05-21 01:24:00,
2013-05-20 21:25:00,62.1,57.9,30.01,West,270,2.2,4.9,86,0.00,,,0.06,WUHU216HW,2013-05-21 01:25:00,
2013-05-20 21:26:00,61.9,57.7,30.01,WSW,248,2.2,4.9,86,0.00,,,0.06,WUHU216HW,2013-05-21 01:26:00,
2013-05-20 21:28:00,61.9,57.7,30.01,SSW,203,1.8,4.9,86,0.00,,,0.06,WUHU216HW,2013-05-21 01:28:00,
2013-05-20 21:29:00,61.9,57.7,30.01,SSW,203,2.2,4.9,86,0.00,,,0.06,WUHU216HW,2013-05-21 01:29:00,
2013-05-20 21:31:00,61.9,58.1,30.02,SW,225,2.9,4.9,87,0.00,,,0.06,WUHU216HW,2013-05-21 01:31:00,
2013-05-20 21:34:00,61.7,57.9,30.02,SSW,203,3.6,5.1,87,0.00,,,0.06,WUHU216HW,2013-05-21 01:34:00,
2013-05-20 21:36:00,61.7,57.9,30.02,SSW,203,1.8,5.1,87,0.00,,,0.06,WUHU216HW,2013-05-21 01:36:00,
2013-05-20 21:39:00,61.7,57.9,30.02,SSE,158,1.8,5.1,87,0.00,,,0.06,WUHU216HW,2013-05-21 01:39:00,
2013-05-20 21:41:00,61.7,57.9,30.02,WSW,248,1.3,5.1,87,0.00,,,0.06,WUHU216HW,2013-05-21 01:41:00,
2013-05-20 21:44:00,61.7,57.9,30.02,WSW,248,2.5,2.9,87,0.00,,,0.06,WUHU216HW,2013-05-21 01:44:00,
2013-05-20 21:46:00,61.7,57.9,30.02,WSW,248,1.8,2.5,87,0.00,,,0.06,WUHU216HW,2013-05-21 01:46:00,
2013-05-20 21:49:00,61.7,57.9,30.02,SW,225,2.0,2.5,87,0.00,,,0.06,WUHU216HW,2013-05-21 01:49:00,
2013-05-20 21:51:00,61.7,57.9,30.02,SSW,203,0.2,2.5,87,0.00,,,0.06,WUHU216HW,2013-05-21 01:51:00,
2013-05-20 21:54:00,61.7,57.9,30.02,SE,135,1.6,2.5,87,0.00,,,0.06,WUHU216HW,2013-05-21 01:54:00,
2013-05-20 21:55:00,61.7,57.9,30.02,SSE,158,0.2,2.0,87,0.00,,,0.06,WUHU216HW,2013-05-21 01:55:00,
2013-05-20 21:56:00,61.7,57.9,30.02,SSW,203,0.4,2.0,87,0.00,,,0.06,WUHU216HW,2013-05-21 01:56:00,
2013-05-20 21:59:00,61.7,57.9,30.02,SSW,203,0.4,1.6,87,0.00,,,0.06,WUHU216HW,2013-05-21 01:59:00,
2013-05-20 22:00:00,61.6,57.7,30.02,SSW,203,0.4,1.6,87,0.00,,,0.06,WUHU216HW,2013-05-21 02:00:00,
2013-05-20 22:01:00,61.6,57.7,30.02,WSW,248,1.1,1.6,87,0.00,,,0.06,WUHU216HW,2013-05-21 02:01:00,
2013-05-20 22:02:00,61.6,57.7,30.02,WSW,248,1.1,1.6,87,0.00,,,0.06,WUHU216HW,2013-05-21 02:02:00,
2013-05-20 22:04:00,61.6,57.7,30.02,WSW,248,1.1,1.6,87,0.00,,,0.06,WUHU216HW,2013-05-21 02:04:00,
2013-05-20 22:05:00,61.6,57.7,30.02,WSW,248,1.1,1.6,87,0.00,,,0.06,WUHU216HW,2013-05-21 02:05:00,
2013-05-20 22:06:00,61.6,57.7,30.02,South,180,0.0,1.6,87,0.00,,,0.06,WUHU216HW,2013-05-21 02:06:00,
2013-05-20 22:07:00,61.6,57.7,30.02,SW,225,0.2,1.6,87,0.00,,,0.06,WUHU216HW,2013-05-21 02:07:00,
2013-05-20 22:09:00,61.6,57.7,30.02,SW,225,0.7,1.6,87,0.00,,,0.06,WUHU216HW,2013-05-21 02:09:00,
2013-05-20 22:10:00,61.6,57.7,30.02,SW,225,0.7,1.6,87,0.00,,,0.06,WUHU216HW,2013-05-21 02:10:00,
2013-05-20 22:11:00,61.4,57.5,30.02,South,180,0.0,1.1,87,0.00,,,0.06,WUHU216HW,2013-05-21 02:11:00,
2013-05-20 22:12:00,61.4,57.5,30.02,SSW,203,0.4,1.1,87,0.00,,,0.06,WUHU216HW,2013-05-21 02:12:00,
2013-05-20 22:15:00,61.2,57.3,30.02,SW,225,1.8,2.9,87,0.00,,,0.06,WUHU216HW,2013-05-21 02:15:00,
2013-05-20 22:16:00,61.2,57.3,30.02,SW,225,1.8,2.9,87,0.00,,,0.06,WUHU216HW,2013-05-21 02:16:00,
2013-05-20 22:17:00,61.2,57.3,30.02,SW,225,1.6,2.9,87,0.00,,,0.06,WUHU216HW,2013-05-21 02:17:00,
2013-05-20 22:20:00,61.0,57.2,30.02,SW,225,0.0,2.9,87,0.00,,,0.06,WUHU216HW,2013-05-21 02:20:00,
2013-05-20 22:22:00,61.0,57.2,30.02,West,270,0.2,2.9,87,0.00,,,0.06,WUHU216HW,2013-05-21 02:22:00,
2013-05-20 22:25:00,61.0,57.2,30.02,WSW,248,0.7,2.7,87,0.00,,,0.06,WUHU216HW,2013-05-21 02:25:00,
2013-05-20 22:27:00,60.8,57.0,30.02,SSW,203,0.0,2.7,87,0.00,,,0.06,WUHU216HW,2013-05-21 02:27:00,
2013-05-20 22:30:00,61.0,57.2,30.02,South,180,0.0,1.8,87,0.00,,,0.06,WUHU216HW,2013-05-21 02:30:00,
2013-05-20 22:31:00,61.0,57.2,30.02,South,180,0.0,1.8,87,0.00,,,0.06,WUHU216HW,2013-05-21 02:31:00,
2013-05-20 22:32:00,61.0,57.2,30.02,South,180,0.0,1.8,87,0.00,,,0.06,WUHU216HW,2013-05-21 02:32:00,
2013-05-20 22:33:00,60.8,57.0,30.02,SSW,203,0.0,1.8,87,0.00,,,0.06,WUHU216HW,2013-05-21 02:33:00,
2013-05-20 22:35:00,60.8,57.0,30.03,SSW,203,0.2,0.7,87,0.00,,,0.06,WUHU216HW,2013-05-21 02:35:00,
2013-05-20 22:36:00,60.8,57.0,30.03,SSE,158,0.0,0.7,87,0.00,,,0.06,WUHU216HW,2013-05-21 02:36:00,
2013-05-20 22:37:00,60.8,57.0,30.03,SSW,203,0.0,0.7,87,0.00,,,0.06,WUHU216HW,2013-05-21 02:37:00,
2013-05-20 22:38:00,60.8,57.0,30.03,SSW,203,0.0,0.7,87,0.00,,,0.06,WUHU216HW,2013-05-21 02:38:00,
2013-05-20 22:40:00,61.0,57.2,30.03,SW,225,1.8,2.2,87,0.00,,,0.06,WUHU216HW,2013-05-21 02:40:00,
2013-05-20 22:41:00,61.0,57.2,30.03,SW,225,1.3,2.2,87,0.00,,,0.06,WUHU216HW,2013-05-21 02:41:00,
2013-05-20 22:42:00,61.2,57.3,30.03,WSW,248,1.1,2.2,87,0.00,,,0.06,WUHU216HW,2013-05-21 02:42:00,
2013-05-20 22:43:00,61.2,57.3,30.03,WSW,248,1.1,2.2,87,0.00,,,0.06,WUHU216HW,2013-05-21 02:43:00,
2013-05-20 22:46:00,61.6,57.7,30.03,SW,225,0.0,2.2,87,0.00,,,0.06,WUHU216HW,2013-05-21 02:46:00,
2013-05-20 22:48:00,61.6,57.7,30.03,SSW,203,0.4,2.2,87,0.00,,,0.06,WUHU216HW,2013-05-21 02:48:00,
2013-05-20 22:49:00,61.6,58.1,30.03,WSW,248,1.6,2.2,88,0.00,,,0.06,WUHU216HW,2013-05-21 02:49:00,
2013-05-20 22:51:00,61.7,58.2,30.02,SW,225,0.9,2.0,88,0.00,,,0.06,WUHU216HW,2013-05-21 02:51:00,
2013-05-20 22:53:00,61.9,58.7,30.02,WSW,248,2.0,2.9,89,0.00,,,0.06,WUHU216HW,2013-05-21 02:53:00,
2013-05-20 22:54:00,62.1,58.9,30.02,SW,225,1.6,2.9,89,0.00,,,0.06,WUHU216HW,2013-05-21 02:54:00,
2013-05-20 22:56:00,62.3,59.0,30.02,WSW,248,0.4,2.9,89,0.00,,,0.06,WUHU216HW,2013-05-21 02:56:00,
2013-05-20 22:58:00,62.5,59.2,30.02,WSW,248,0.2,2.9,89,0.00,,,0.06,WUHU216HW,2013-05-21 02:58:00,
2013-05-20 22:59:00,62.5,59.2,30.02,West,270,1.1,2.9,89,0.00,,,0.06,WUHU216HW,2013-05-21 02:59:00,
2013-05-20 23:01:00,62.6,59.4,30.02,SSW,203,3.1,3.1,89,0.00,,,0.06,WUHU216HW,2013-05-21 03:01:00,
2013-05-20 23:03:00,62.8,59.6,30.02,SSW,203,1.6,3.1,89,0.00,,,0.06,WUHU216HW,2013-05-21 03:03:00,
2013-05-20 23:05:00,62.8,59.6,30.02,WSW,248,0.2,3.1,89,0.00,,,0.06,WUHU216HW,2013-05-21 03:05:00,
2013-05-20 23:06:00,62.8,59.6,30.02,SSW,203,0.0,3.1,89,0.00,,,0.06,WUHU216HW,2013-05-21 03:06:00,
2013-05-20 23:07:00,62.8,59.6,30.02,SSW,203,0.0,3.1,89,0.00,,,0.06,WUHU216HW,2013-05-21 03:07:00,
2013-05-20 23:08:00,62.6,59.4,30.02,SE,135,0.2,3.1,89,0.00,,,0.06,WUHU216HW,2013-05-21 03:08:00,
2013-05-20 23:10:00,62.6,59.4,30.02,SW,225,2.5,3.1,89,0.00,,,0.06,WUHU216HW,2013-05-21 03:10:00,
2013-05-20 23:12:00,62.3,58.7,30.01,SW,225,0.2,2.5,88,0.00,,,0.06,WUHU216HW,2013-05-21 03:12:00,
2013-05-20 23:13:00,62.3,59.0,30.02,SW,225,0.4,2.5,89,0.00,,,0.06,WUHU216HW,2013-05-21 03:13:00,
2013-05-20 23:14:00,62.3,59.0,30.01,South,180,0.0,2.5,89,0.00,,,0.06,WUHU216HW,2013-05-21 03:14:00,
2013-05-20 23:15:00,62.3,58.7,30.01,SW,225,0.2,2.5,88,0.00,,,0.06,WUHU216HW,2013-05-21 03:15:00,
2013-05-20 23:17:00,62.1,58.6,30.01,South,180,0.2,2.5,88,0.00,,,0.06,WUHU216HW,2013-05-21 03:17:00,
2013-05-20 23:19:00,62.1,58.6,30.01,SSW,203,0.0,2.5,88,0.00,,,0.06,WUHU216HW,2013-05-21 03:19:00,
2013-05-20 23:20:00,61.9,58.4,30.01,SW,225,0.2,2.5,88,0.00,,,0.06,WUHU216HW,2013-05-21 03:20:00,
2013-05-20 23:22:00,61.9,58.4,30.01,SW,225,1.8,1.8,88,0.00,,,0.06,WUHU216HW,2013-05-21 03:22:00,
2013-05-20 23:23:00,61.7,58.2,30.01,SW,225,0.2,2.0,88,0.00,,,0.06,WUHU216HW,2013-05-21 03:23:00,
2013-05-20 23:24:00,61.7,58.2,30.01,South,180,0.0,2.0,88,0.00,,,0.06,WUHU216HW,2013-05-21 03:24:00,
2013-05-20 23:25:00,61.7,58.2,30.01,South,180,0.0,2.0,88,0.00,,,0.06,WUHU216HW,2013-05-21 03:25:00,
2013-05-20 23:27:00,61.7,58.2,30.01,SW,225,1.6,2.0,88,0.00,,,0.06,WUHU216HW,2013-05-21 03:27:00,
2013-05-20 23:28:00,61.7,58.2,30.01,SW,225,0.2,2.0,88,0.00,,,0.06,WUHU216HW,2013-05-21 03:28:00,
2013-05-20 23:29:00,61.7,58.2,30.01,SSE,158,0.2,2.0,88,0.00,,,0.06,WUHU216HW,2013-05-21 03:29:00,
2013-05-20 23:30:00,61.7,58.2,30.01,SSE,158,0.2,2.0,88,0.00,,,0.06,WUHU216HW,2013-05-21 03:30:00,
2013-05-20 23:33:00,61.6,58.1,30.01,SW,225,0.4,2.0,88,0.00,,,0.06,WUHU216HW,2013-05-21 03:33:00,
2013-05-20 23:34:00,61.4,57.9,30.01,SSW,203,0.4,1.6,88,0.00,,,0.06,WUHU216HW,2013-05-21 03:34:00,
2013-05-20 23:35:00,61.4,57.9,30.01,SE,135,0.7,1.6,88,0.00,,,0.06,WUHU216HW,2013-05-21 03:35:00,
2013-05-20 23:36:00,61.4,57.9,30.01,SSW,203,0.4,1.6,88,0.00,,,0.06,WUHU216HW,2013-05-21 03:36:00,
2013-05-20 23:38:00,61.2,58.0,30.01,WSW,248,2.2,2.9,89,0.00,,,0.06,WUHU216HW,2013-05-21 03:38:00,
2013-05-20 23:39:00,61.2,57.7,30.01,SSE,158,2.0,2.9,88,0.00,,,0.06,WUHU216HW,2013-05-21 03:39:00,
2013-05-20 23:40:00,61.0,57.8,30.01,SW,225,1.3,2.9,89,0.00,,,0.06,WUHU216HW,2013-05-21 03:40:00,
2013-05-20 23:41:00,61.0,57.5,30.01,South,180,3.4,3.4,88,0.00,,,0.06,WUHU216HW,2013-05-21 03:41:00,
2013-05-20 23:43:00,60.8,57.3,30.01,West,270,2.0,3.4,88,0.00,,,0.06,WUHU216HW,2013-05-21 03:43:00,
2013-05-20 23:44:00,60.8,57.3,30.01,SW,225,1.6,3.4,88,0.00,,,0.06,WUHU216HW,2013-05-21 03:44:00,
2013-05-20 23:45:00,60.8,57.3,30.01,WSW,248,0.0,3.4,88,0.00,,,0.06,WUHU216HW,2013-05-21 03:45:00,
2013-05-20 23:46:00,60.8,57.3,30.01,South,180,0.7,3.4,88,0.00,,,0.06,WUHU216HW,2013-05-21 03:46:00,
2013-05-20 23:48:00,60.8,57.3,30.01,WSW,248,0.4,3.4,88,0.00,,,0.06,WUHU216HW,2013-05-21 03:48:00,
2013-05-20 23:49:00,60.8,57.3,30.01,West,270,0.2,3.4,88,0.00,,,0.06,WUHU216HW,2013-05-21 03:49:00,
2013-05-20 23:51:00,60.8,57.6,30.01,SW,225,3.6,3.6,89,0.00,,,0.06,WUHU216HW,2013-05-21 03:51:00,
2013-05-20 23:54:00,61.0,57.8,30.01,WSW,248,2.9,3.6,89,0.00,,,0.06,WUHU216HW,2013-05-21 03:54:00,
2013-05-20 23:56:00,61.2,58.0,30.01,SW,225,0.2,3.6,89,0.00,,,0.06,WUHU216HW,2013-05-21 03:56:00,
2013-05-20 23:57:00,61.4,58.1,30.01,South,180,1.1,3.6,89,0.00,,,0.06,WUHU216HW,2013-05-21 03:57:00,
2013-05-20 23:59:00,61.6,58.3,30.01,SW,225,0.4,3.6,89,0.00,,,0.06,WUHU216HW,2013-05-21 03:59:00,